Wetterdaten: Montag, 24.10.2022
Datum Zeit Temp. 2m Temp +5 cm Feuchte A. Luftdruck Regen Wind Richtung Richtung Sonnenschein UV Solar Taupunkt Windchill Windben
24.10.2022 00:00 14,1 C 12,8 C 86 % 1010,2 hPa 0,0 l/m 16,5 km/h (3 Bft) S 182 0 min 0,0 UV-I 0 W/m 11,8 C 9,6 C 25,7 km/h (4 Bft)
24.10.2022 00:03 14,1 C 12,8 C 85 % 1010,2 hPa 0,0 l/m 13,5 km/h (3 Bft) S-SW 193 0 min 0,0 UV-I 0 W/m 11,6 C 10,6 C 22,5 km/h (4 Bft)
24.10.2022 00:06 14,0 C 12,8 C 86 % 1010,2 hPa 0,0 l/m 14,0 km/h (3 Bft) S-SO 167 0 min 0,0 UV-I 0 W/m 11,7 C 10,3 C 22,5 km/h (4 Bft)
24.10.2022 00:09 13,9 C 12,8 C 86 % 1010,4 hPa 0,0 l/m 12,3 km/h (3 Bft) S-SW 204 0 min 0,0 UV-I 0 W/m 11,6 C 10,9 C 20,9 km/h (4 Bft)
24.10.2022 00:12 13,9 C 12,2 C 86 % 1010,3 hPa 0,0 l/m 11,2 km/h (2 Bft) S-SW 212 0 min 0,0 UV-I 0 W/m 11,6 C 11,3 C 16,1 km/h (3 Bft)
24.10.2022 00:15 13,8 C 12,2 C 86 % 1010,3 hPa 0,0 l/m 13,1 km/h (3 Bft) S-SW 211 0 min 0,0 UV-I 0 W/m 11,5 C 10,4 C 19,3 km/h (3 Bft)
24.10.2022 00:18 13,8 C 12,8 C 86 % 1010,4 hPa 0,0 l/m 12,0 km/h (2 Bft) S-SW 193 0 min 0,0 UV-I 0 W/m 11,5 C 10,9 C 17,7 km/h (3 Bft)
24.10.2022 00:21 13,9 C 12,8 C 86 % 1010,3 hPa 0,0 l/m 16,2 km/h (3 Bft) S-SW 193 0 min 0,0 UV-I 0 W/m 11,6 C 9,5 C 27,4 km/h (4 Bft)
24.10.2022 00:24 13,9 C 12,8 C 86 % 1010,3 hPa 0,0 l/m 13,6 km/h (3 Bft) S 182 0 min 0,0 UV-I 0 W/m 11,6 C 10,4 C 25,7 km/h (4 Bft)
24.10.2022 00:27 13,9 C 12,8 C 86 % 1010,2 hPa 0,0 l/m 13,3 km/h (3 Bft) S 188 0 min 0,0 UV-I 0 W/m 11,6 C 10,5 C 19,3 km/h (3 Bft)
24.10.2022 00:30 13,9 C 12,8 C 86 % 1010,2 hPa 0,0 l/m 14,0 km/h (3 Bft) S 188 0 min 0,0 UV-I 0 W/m 11,6 C 10,2 C 22,5 km/h (4 Bft)
24.10.2022 00:33 13,9 C 12,8 C 86 % 1010,3 hPa 0,0 l/m 15,5 km/h (3 Bft) S 188 0 min 0,0 UV-I 0 W/m 11,6 C 9,7 C 25,7 km/h (4 Bft)
24.10.2022 00:36 13,9 C 12,8 C 86 % 1010,3 hPa 0,0 l/m 13,4 km/h (3 Bft) S-SW 194 0 min 0,0 UV-I 0 W/m 11,6 C 10,4 C 24,1 km/h (4 Bft)
24.10.2022 00:39 14,0 C 12,8 C 86 % 1010,3 hPa 0,0 l/m 12,9 km/h (3 Bft) S-SW 192 0 min 0,0 UV-I 0 W/m 11,7 C 10,8 C 24,1 km/h (4 Bft)
24.10.2022 00:42 13,9 C 12,8 C 86 % 1010,3 hPa 0,0 l/m 14,2 km/h (3 Bft) S 171 0 min 0,0 UV-I 0 W/m 11,6 C 10,1 C 25,7 km/h (4 Bft)
24.10.2022 00:45 13,9 C 12,8 C 86 % 1010,3 hPa 0,0 l/m 14,2 km/h (3 Bft) S-SO 154 0 min 0,0 UV-I 0 W/m 11,6 C 10,1 C 22,5 km/h (4 Bft)
24.10.2022 00:48 14,1 C 12,8 C 86 % 1010,3 hPa 0,0 l/m 16,8 km/h (3 Bft) S 173 0 min 0,0 UV-I 0 W/m 11,8 C 9,5 C 27,4 km/h (4 Bft)
24.10.2022 00:51 14,0 C 12,8 C 86 % 1010,3 hPa 0,0 l/m 11,2 km/h (2 Bft) S-SO 161 0 min 0,0 UV-I 0 W/m 11,7 C 11,5 C 17,7 km/h (3 Bft)
24.10.2022 00:54 13,9 C 12,8 C 86 % 1010,3 hPa 0,0 l/m 9,6 km/h (2 Bft) S-SO 157 0 min 0,0 UV-I 0 W/m 11,6 C 12,1 C 17,7 km/h (3 Bft)
24.10.2022 00:57 13,8 C 12,2 C 86 % 1010,3 hPa 0,0 l/m 11,8 km/h (2 Bft) S 175 0 min 0,0 UV-I 0 W/m 11,5 C 11,0 C 19,3 km/h (3 Bft)
24.10.2022 01:00 13,7 C 12,2 C 86 % 1010,3 hPa 0,0 l/m 13,1 km/h (3 Bft) S-SO 164 0 min 0,0 UV-I 0 W/m 11,4 C 10,3 C 20,9 km/h (4 Bft)
24.10.2022 01:03 13,7 C 12,2 C 86 % 1010,2 hPa 0,0 l/m 15,4 km/h (3 Bft) S 185 0 min 0,0 UV-I 0 W/m 11,4 C 9,5 C 22,5 km/h (4 Bft)
24.10.2022 01:06 13,8 C 12,8 C 86 % 1010,3 hPa 0,0 l/m 16,2 km/h (3 Bft) SW 215 0 min 0,0 UV-I 0 W/m 11,5 C 9,3 C 25,7 km/h (4 Bft)
24.10.2022 01:09 13,9 C 12,8 C 86 % 1010,3 hPa 0,0 l/m 17,1 km/h (3 Bft) SO 137 0 min 0,0 UV-I 0 W/m 11,6 C 9,2 C 27,4 km/h (4 Bft)
24.10.2022 01:12 14,0 C 12,8 C 86 % 1010,3 hPa 0,0 l/m 15,5 km/h (3 Bft) S-SO 150 0 min 0,0 UV-I 0 W/m 11,7 C 9,8 C 24,1 km/h (4 Bft)
24.10.2022 01:15 14,0 C 12,8 C 86 % 1010,3 hPa 0,0 l/m 18,9 km/h (3 Bft) S 173 0 min 0,0 UV-I 0 W/m 11,7 C 8,8 C 30,6 km/h (5 Bft)
24.10.2022 01:18 14,0 C 12,8 C 86 % 1010,3 hPa 0,0 l/m 13,0 km/h (3 Bft) S 173 0 min 0,0 UV-I 0 W/m 11,7 C 10,7 C 20,9 km/h (4 Bft)
24.10.2022 01:21 14,0 C 12,8 C 86 % 1010,3 hPa 0,0 l/m 14,7 km/h (3 Bft) S 188 0 min 0,0 UV-I 0 W/m 11,7 C 10,1 C 25,7 km/h (4 Bft)
24.10.2022 01:24 14,1 C 12,8 C 85 % 1010,2 hPa 0,0 l/m 16,1 km/h (3 Bft) S-SW 196 0 min 0,0 UV-I 0 W/m 11,6 C 9,7 C 29,0 km/h (5 Bft)
24.10.2022 01:27 14,1 C 12,8 C 85 % 1010,2 hPa 0,0 l/m 13,6 km/h (3 Bft) S-SO 168 0 min 0,0 UV-I 0 W/m 11,6 C 10,6 C 20,9 km/h (4 Bft)
24.10.2022 01:30 14,0 C 12,8 C 85 % 1010,1 hPa 0,0 l/m 12,5 km/h (3 Bft) S-SO 165 0 min 0,0 UV-I 0 W/m 11,5 C 10,9 C 19,3 km/h (3 Bft)
24.10.2022 01:33 14,1 C 12,8 C 85 % 1010,1 hPa 0,0 l/m 15,0 km/h (3 Bft) S 175 0 min 0,0 UV-I 0 W/m 11,6 C 10,1 C 27,4 km/h (4 Bft)
24.10.2022 01:36 14,2 C 12,8 C 84 % 1010,0 hPa 0,0 l/m 14,7 km/h (3 Bft) S 171 0 min 0,0 UV-I 0 W/m 11,5 C 10,3 C 27,4 km/h (4 Bft)
24.10.2022 01:39 14,3 C 12,8 C 83 % 1010,1 hPa 0,0 l/m 14,2 km/h (3 Bft) S 179 0 min 0,0 UV-I 0 W/m 11,5 C 10,6 C 20,9 km/h (4 Bft)
24.10.2022 01:42 14,4 C 13,3 C 82 % 1010,1 hPa 0,0 l/m 17,2 km/h (3 Bft) S-SO 159 0 min 0,0 UV-I 0 W/m 11,4 C 9,8 C 30,6 km/h (5 Bft)
24.10.2022 01:45 14,4 C 13,3 C 82 % 1010,0 hPa 0,0 l/m 14,0 km/h (3 Bft) S 184 0 min 0,0 UV-I 0 W/m 11,4 C 10,8 C 20,9 km/h (4 Bft)
24.10.2022 01:48 14,4 C 13,3 C 81 % 1010,1 hPa 0,0 l/m 17,4 km/h (3 Bft) SO 144 0 min 0,0 UV-I 0 W/m 11,2 C 9,7 C 32,2 km/h (5 Bft)
24.10.2022 01:51 14,4 C 13,3 C 81 % 1010,0 hPa 0,0 l/m 17,8 km/h (3 Bft) S 184 0 min 0,0 UV-I 0 W/m 11,2 C 9,6 C 32,2 km/h (5 Bft)
24.10.2022 01:54 14,4 C 12,8 C 81 % 1010,2 hPa 0,0 l/m 15,3 km/h (3 Bft) S-SO 167 0 min 0,0 UV-I 0 W/m 11,2 C 10,4 C 32,2 km/h (5 Bft)
24.10.2022 01:57 14,3 C 12,8 C 81 % 1010,1 hPa 0,0 l/m 15,9 km/h (3 Bft) S-SW 194 0 min 0,0 UV-I 0 W/m 11,1 C 10,0 C 25,7 km/h (4 Bft)
24.10.2022 02:00 14,3 C 12,8 C 81 % 1010,1 hPa 0,0 l/m 17,3 km/h (3 Bft) S 184 0 min 0,0 UV-I 0 W/m 11,1 C 9,6 C 29,0 km/h (5 Bft)
24.10.2022 02:03 14,3 C 12,8 C 81 % 1010,1 hPa 0,0 l/m 14,0 km/h (3 Bft) S-SO 152 0 min 0,0 UV-I 0 W/m 11,1 C 10,7 C 24,1 km/h (4 Bft)
24.10.2022 02:06 14,2 C 12,8 C 82 % 1010,1 hPa 0,0 l/m 10,3 km/h (2 Bft) S 171 0 min 0,0 UV-I 0 W/m 11,2 C 12,1 C 17,7 km/h (3 Bft)
24.10.2022 02:09 14,1 C 12,8 C 83 % 1010,1 hPa 0,0 l/m 15,0 km/h (3 Bft) SO 134 0 min 0,0 UV-I 0 W/m 11,3 C 10,1 C 25,7 km/h (4 Bft)
24.10.2022 02:12 13,9 C 12,2 C 83 % 1010,1 hPa 0,0 l/m 8,9 km/h (2 Bft) SO 146 0 min 0,0 UV-I 0 W/m 11,1 C 12,5 C 16,1 km/h (3 Bft)
24.10.2022 02:15 13,7 C 12,2 C 84 % 1010,0 hPa 0,0 l/m 10,6 km/h (2 Bft) S-SO 160 0 min 0,0 UV-I 0 W/m 11,0 C 11,4 C 17,7 km/h (3 Bft)
24.10.2022 02:18 13,5 C 12,2 C 85 % 1010,2 hPa 0,0 l/m 6,9 km/h (2 Bft) SO 140 0 min 0,0 UV-I 0 W/m 11,0 C 13,2 C 12,9 km/h (3 Bft)
24.10.2022 02:21 13,2 C 11,7 C 85 % 1010,1 hPa 0,0 l/m 9,3 km/h (2 Bft) S 169 0 min 0,0 UV-I 0 W/m 10,7 C 11,5 C 16,1 km/h (3 Bft)
24.10.2022 02:24 13,1 C 11,7 C 87 % 1010,2 hPa 0,0 l/m 9,7 km/h (2 Bft) S 171 0 min 0,0 UV-I 0 W/m 11,0 C 11,2 C 17,7 km/h (3 Bft)
24.10.2022 02:27 13,1 C 11,7 C 87 % 1010,3 hPa 0,0 l/m 7,6 km/h (2 Bft) S-SO 148 0 min 0,0 UV-I 0 W/m 11,0 C 12,3 C 11,3 km/h (2 Bft)
24.10.2022 02:30 13,1 C 11,7 C 87 % 1010,2 hPa 0,0 l/m 10,8 km/h (2 Bft) S-SO 157 0 min 0,0 UV-I 0 W/m 11,0 C 10,6 C 17,7 km/h (3 Bft)
24.10.2022 02:33 13,1 C 11,7 C 87 % 1010,2 hPa 0,0 l/m 8,6 km/h (2 Bft) S-SO 161 0 min 0,0 UV-I 0 W/m 11,0 C 11,8 C 12,9 km/h (3 Bft)
24.10.2022 02:36 13,0 C 11,7 C 87 % 1010,2 hPa 0,0 l/m 10,2 km/h (2 Bft) S 170 0 min 0,0 UV-I 0 W/m 10,9 C 10,8 C 17,7 km/h (3 Bft)
24.10.2022 02:39 13,1 C 11,7 C 87 % 1010,2 hPa 0,0 l/m 11,9 km/h (2 Bft) S-SO 165 0 min 0,0 UV-I 0 W/m 11,0 C 10,1 C 17,7 km/h (3 Bft)
24.10.2022 02:42 13,2 C 11,7 C 87 % 1010,2 hPa 0,0 l/m 9,7 km/h (2 Bft) S-SO 164 0 min 0,0 UV-I 0 W/m 11,1 C 11,3 C 19,3 km/h (3 Bft)
24.10.2022 02:45 13,3 C 12,2 C 87 % 1010,2 hPa 0,0 l/m 14,3 km/h (3 Bft) S 184 0 min 0,0 UV-I 0 W/m 11,2 C 9,4 C 24,1 km/h (4 Bft)
24.10.2022 02:48 13,3 C 12,2 C 86 % 1010,1 hPa 0,0 l/m 11,6 km/h (2 Bft) S-SO 147 0 min 0,0 UV-I 0 W/m 11,0 C 10,5 C 17,7 km/h (3 Bft)
24.10.2022 02:51 13,3 C 12,2 C 86 % 1010,2 hPa 0,0 l/m 13,3 km/h (3 Bft) S 187 0 min 0,0 UV-I 0 W/m 11,0 C 9,8 C 24,1 km/h (4 Bft)
24.10.2022 02:54 13,3 C 12,2 C 86 % 1010,2 hPa 0,0 l/m 12,4 km/h (3 Bft) S-SW 198 0 min 0,0 UV-I 0 W/m 11,0 C 10,1 C 22,5 km/h (4 Bft)
24.10.2022 02:57 13,4 C 12,2 C 85 % 1010,1 hPa 0,0 l/m 13,3 km/h (3 Bft) S-SO 149 0 min 0,0 UV-I 0 W/m 10,9 C 9,9 C 22,5 km/h (4 Bft)
24.10.2022 03:00 13,4 C 12,2 C 85 % 1010,1 hPa 0,0 l/m 14,7 km/h (3 Bft) S 173 0 min 0,0 UV-I 0 W/m 10,9 C 9,4 C 25,7 km/h (4 Bft)
24.10.2022 03:03 13,4 C 12,2 C 85 % 1010,0 hPa 0,0 l/m 14,5 km/h (3 Bft) S 171 0 min 0,0 UV-I 0 W/m 10,9 C 9,4 C 25,7 km/h (4 Bft)
24.10.2022 03:06 13,4 C 12,2 C 85 % 1009,8 hPa 0,0 l/m 13,9 km/h (3 Bft) SW 217 0 min 0,0 UV-I 0 W/m 10,9 C 9,7 C 24,1 km/h (4 Bft)
24.10.2022 03:09 13,4 C 12,2 C 85 % 1009,7 hPa 0,0 l/m 11,1 km/h (2 Bft) S 175 0 min 0,0 UV-I 0 W/m 10,9 C 10,8 C 17,7 km/h (3 Bft)
24.10.2022 03:12 13,4 C 12,2 C 85 % 1009,8 hPa 0,0 l/m 11,6 km/h (2 Bft) S-SO 163 0 min 0,0 UV-I 0 W/m 10,9 C 10,6 C 20,9 km/h (4 Bft)
24.10.2022 03:15 13,4 C 12,2 C 85 % 1009,7 hPa 0,0 l/m 14,0 km/h (3 Bft) S-SW 206 0 min 0,0 UV-I 0 W/m 10,9 C 9,6 C 27,4 km/h (4 Bft)
24.10.2022 03:18 13,4 C 12,2 C 85 % 1009,6 hPa 0,0 l/m 11,5 km/h (2 Bft) S-SW 192 0 min 0,0 UV-I 0 W/m 10,9 C 10,6 C 19,3 km/h (3 Bft)
24.10.2022 03:21 13,4 C 12,2 C 86 % 1009,6 hPa 0,0 l/m 10,9 km/h (2 Bft) S-SO 149 0 min 0,0 UV-I 0 W/m 11,1 C 10,9 C 17,7 km/h (3 Bft)
24.10.2022 03:24 13,4 C 12,2 C 86 % 1009,5 hPa 0,0 l/m 14,6 km/h (3 Bft) SW 232 0 min 0,0 UV-I 0 W/m 11,1 C 9,4 C 24,1 km/h (4 Bft)
24.10.2022 03:27 13,4 C 12,2 C 85 % 1009,6 hPa 0,0 l/m 13,3 km/h (3 Bft) S 181 0 min 0,0 UV-I 0 W/m 10,9 C 9,9 C 19,3 km/h (3 Bft)
24.10.2022 03:30 13,4 C 12,2 C 85 % 1009,7 hPa 0,0 l/m 12,5 km/h (3 Bft) S 173 0 min 0,0 UV-I 0 W/m 10,9 C 10,2 C 22,5 km/h (4 Bft)
24.10.2022 03:33 13,4 C 12,2 C 85 % 1009,5 hPa 0,0 l/m 13,5 km/h (3 Bft) S 170 0 min 0,0 UV-I 0 W/m 10,9 C 9,8 C 24,1 km/h (4 Bft)
24.10.2022 03:36 13,4 C 12,2 C 85 % 1009,6 hPa 0,0 l/m 12,1 km/h (2 Bft) S-SW 202 0 min 0,0 UV-I 0 W/m 10,9 C 10,4 C 22,5 km/h (4 Bft)
24.10.2022 03:39 13,3 C 11,7 C 86 % 1009,6 hPa 0,0 l/m 13,7 km/h (3 Bft) S 188 0 min 0,0 UV-I 0 W/m 11,0 C 9,6 C 29,0 km/h (5 Bft)
24.10.2022 03:42 13,3 C 11,7 C 85 % 1009,6 hPa 0,0 l/m 15,3 km/h (3 Bft) S-SO 159 0 min 0,0 UV-I 0 W/m 10,8 C 9,0 C 30,6 km/h (5 Bft)
24.10.2022 03:45 13,4 C 12,2 C 85 % 1009,6 hPa 0,0 l/m 16,9 km/h (3 Bft) S-SW 198 0 min 0,0 UV-I 0 W/m 10,9 C 8,6 C 32,2 km/h (5 Bft)
24.10.2022 03:48 13,4 C 12,2 C 85 % 1009,6 hPa 0,0 l/m 17,0 km/h (3 Bft) S 182 0 min 0,0 UV-I 0 W/m 10,9 C 8,6 C 35,4 km/h (5 Bft)
24.10.2022 03:51 13,6 C 12,2 C 84 % 1009,6 hPa 0,0 l/m 16,3 km/h (3 Bft) S-SW 200 0 min 0,0 UV-I 0 W/m 10,9 C 9,1 C 24,1 km/h (4 Bft)
24.10.2022 03:54 13,6 C 12,2 C 84 % 1009,7 hPa 0,0 l/m 15,5 km/h (3 Bft) S 169 0 min 0,0 UV-I 0 W/m 10,9 C 9,3 C 25,7 km/h (4 Bft)
24.10.2022 03:57 13,6 C 12,2 C 84 % 1009,6 hPa 0,0 l/m 17,2 km/h (3 Bft) S-SO 148 0 min 0,0 UV-I 0 W/m 10,9 C 8,8 C 27,4 km/h (4 Bft)
24.10.2022 04:00 13,6 C 12,2 C 84 % 1009,5 hPa 0,0 l/m 14,2 km/h (3 Bft) S 179 0 min 0,0 UV-I 0 W/m 10,9 C 9,8 C 25,7 km/h (4 Bft)
24.10.2022 04:03 13,6 C 12,8 C 83 % 1009,6 hPa 0,0 l/m 18,8 km/h (3 Bft) S-SO 163 0 min 0,0 UV-I 0 W/m 10,8 C 8,3 C 27,4 km/h (4 Bft)
24.10.2022 04:06 13,7 C 12,2 C 83 % 1009,5 hPa 0,0 l/m 17,2 km/h (3 Bft) S 169 0 min 0,0 UV-I 0 W/m 10,9 C 8,9 C 29,0 km/h (5 Bft)
24.10.2022 04:09 13,7 C 12,8 C 82 % 1009,5 hPa 0,0 l/m 17,4 km/h (3 Bft) S 182 0 min 0,0 UV-I 0 W/m 10,7 C 8,8 C 30,6 km/h (5 Bft)
24.10.2022 04:12 13,7 C 12,8 C 82 % 1009,4 hPa 0,0 l/m 17,3 km/h (3 Bft) S-SO 157 0 min 0,0 UV-I 0 W/m 10,7 C 8,9 C 35,4 km/h (5 Bft)
24.10.2022 04:15 13,7 C 12,2 C 82 % 1009,4 hPa 0,0 l/m 17,9 km/h (3 Bft) S 171 0 min 0,0 UV-I 0 W/m 10,7 C 8,7 C 27,4 km/h (4 Bft)
24.10.2022 04:18 13,6 C 12,2 C 82 % 1009,4 hPa 0,0 l/m 14,7 km/h (3 Bft) S 182 0 min 0,0 UV-I 0 W/m 10,6 C 9,6 C 25,7 km/h (4 Bft)
24.10.2022 04:21 13,6 C 12,2 C 82 % 1009,2 hPa 0,0 l/m 16,7 km/h (3 Bft) S 173 0 min 0,0 UV-I 0 W/m 10,6 C 8,9 C 25,7 km/h (4 Bft)
24.10.2022 04:24 13,6 C 12,2 C 82 % 1009,3 hPa 0,0 l/m 15,5 km/h (3 Bft) S 178 0 min 0,0 UV-I 0 W/m 10,6 C 9,3 C 22,5 km/h (4 Bft)
24.10.2022 04:27 13,6 C 12,2 C 82 % 1009,2 hPa 0,0 l/m 15,2 km/h (3 Bft) S 186 0 min 0,0 UV-I 0 W/m 10,6 C 9,4 C 22,5 km/h (4 Bft)
24.10.2022 04:30 13,5 C 12,2 C 82 % 1009,2 hPa 0,0 l/m 16,1 km/h (3 Bft) SW 222 0 min 0,0 UV-I 0 W/m 10,5 C 9,0 C 32,2 km/h (5 Bft)
24.10.2022 04:33 13,5 C 12,2 C 82 % 1009,1 hPa 0,0 l/m 14,7 km/h (3 Bft) S-SO 167 0 min 0,0 UV-I 0 W/m 10,5 C 9,5 C 25,7 km/h (4 Bft)
24.10.2022 04:36 13,5 C 12,2 C 82 % 1009,2 hPa 0,0 l/m 16,4 km/h (3 Bft) S-SW 196 0 min 0,0 UV-I 0 W/m 10,5 C 8,9 C 24,1 km/h (4 Bft)
24.10.2022 04:39 13,5 C 12,2 C 81 % 1009,1 hPa 0,0 l/m 14,7 km/h (3 Bft) S 187 0 min 0,0 UV-I 0 W/m 10,3 C 9,5 C 20,9 km/h (4 Bft)
24.10.2022 04:42 13,4 C 12,2 C 81 % 1009,1 hPa 0,0 l/m 15,0 km/h (3 Bft) S 181 0 min 0,0 UV-I 0 W/m 10,2 C 9,3 C 27,4 km/h (4 Bft)
24.10.2022 04:45 13,4 C 12,2 C 81 % 1009,0 hPa 0,0 l/m 17,1 km/h (3 Bft) S-SO 168 0 min 0,0 UV-I 0 W/m 10,2 C 8,5 C 29,0 km/h (5 Bft)
24.10.2022 04:48 13,4 C 12,2 C 81 % 1009,0 hPa 0,0 l/m 15,4 km/h (3 Bft) S 178 0 min 0,0 UV-I 0 W/m 10,2 C 9,1 C 27,4 km/h (4 Bft)
24.10.2022 04:51 13,4 C 12,2 C 81 % 1009,0 hPa 0,0 l/m 17,6 km/h (3 Bft) S-SO 165 0 min 0,0 UV-I 0 W/m 10,2 C 8,4 C 29,0 km/h (5 Bft)
24.10.2022 04:54 13,5 C 12,2 C 81 % 1009,0 hPa 0,0 l/m 17,2 km/h (3 Bft) S 175 0 min 0,0 UV-I 0 W/m 10,3 C 8,6 C 27,4 km/h (4 Bft)
24.10.2022 04:57 13,4 C 12,2 C 81 % 1008,9 hPa 0,0 l/m 17,2 km/h (3 Bft) S-SO 163 0 min 0,0 UV-I 0 W/m 10,2 C 8,5 C 27,4 km/h (4 Bft)
24.10.2022 05:00 13,4 C 12,2 C 81 % 1009,0 hPa 0,0 l/m 15,8 km/h (3 Bft) S-SO 163 0 min 0,0 UV-I 0 W/m 10,2 C 9,0 C 27,4 km/h (4 Bft)
24.10.2022 05:03 13,4 C 12,2 C 81 % 1008,9 hPa 0,0 l/m 15,2 km/h (3 Bft) S-SW 198 0 min 0,0 UV-I 0 W/m 10,2 C 9,2 C 30,6 km/h (5 Bft)
24.10.2022 05:06 13,4 C 12,2 C 81 % 1008,8 hPa 0,0 l/m 15,3 km/h (3 Bft) S 171 0 min 0,0 UV-I 0 W/m 10,2 C 9,1 C 25,7 km/h (4 Bft)
24.10.2022 05:09 13,4 C 12,2 C 81 % 1008,8 hPa 0,0 l/m 17,7 km/h (3 Bft) S 190 0 min 0,0 UV-I 0 W/m 10,2 C 8,4 C 27,4 km/h (4 Bft)
24.10.2022 05:12 13,4 C 12,2 C 81 % 1008,8 hPa 0,0 l/m 19,7 km/h (3 Bft) S 172 0 min 0,0 UV-I 0 W/m 10,2 C 7,8 C 37,0 km/h (5 Bft)
24.10.2022 05:15 13,4 C 12,2 C 81 % 1008,8 hPa 0,0 l/m 15,2 km/h (3 Bft) S-SW 200 0 min 0,0 UV-I 0 W/m 10,2 C 9,2 C 27,4 km/h (4 Bft)
24.10.2022 05:18 13,4 C 12,2 C 81 % 1008,9 hPa 0,0 l/m 19,8 km/h (3 Bft) S 179 0 min 0,0 UV-I 0 W/m 10,2 C 7,7 C 30,6 km/h (5 Bft)
24.10.2022 05:21 13,4 C 12,2 C 81 % 1008,9 hPa 0,0 l/m 17,4 km/h (3 Bft) S-SO 165 0 min 0,0 UV-I 0 W/m 10,2 C 8,4 C 25,7 km/h (4 Bft)
24.10.2022 05:24 13,3 C 12,2 C 81 % 1008,9 hPa 0,0 l/m 19,6 km/h (3 Bft) S-SW 198 0 min 0,0 UV-I 0 W/m 10,1 C 7,7 C 33,8 km/h (5 Bft)
24.10.2022 05:27 13,3 C 12,2 C 81 % 1008,9 hPa 0,0 l/m 20,1 km/h (4 Bft) S 175 0 min 0,0 UV-I 0 W/m 10,1 C 7,5 C 37,0 km/h (5 Bft)
24.10.2022 05:30 13,3 C 12,2 C 81 % 1008,9 hPa 0,0 l/m 16,8 km/h (3 Bft) S 191 0 min 0,0 UV-I 0 W/m 10,1 C 8,5 C 32,2 km/h (5 Bft)
24.10.2022 05:33 13,3 C 12,2 C 81 % 1008,8 hPa 0,0 l/m 20,2 km/h (4 Bft) S 176 0 min 0,0 UV-I 0 W/m 10,1 C 7,5 C 37,0 km/h (5 Bft)
24.10.2022 05:36 13,3 C 12,2 C 81 % 1008,8 hPa 0,0 l/m 18,1 km/h (3 Bft) SW 217 0 min 0,0 UV-I 0 W/m 10,1 C 8,1 C 33,8 km/h (5 Bft)
24.10.2022 05:39 13,3 C 12,2 C 81 % 1008,8 hPa 0,0 l/m 21,0 km/h (4 Bft) S 185 0 min 0,0 UV-I 0 W/m 10,1 C 7,3 C 32,2 km/h (5 Bft)
24.10.2022 05:42 13,3 C 12,2 C 81 % 1008,7 hPa 0,0 l/m 17,7 km/h (3 Bft) S-SW 194 0 min 0,0 UV-I 0 W/m 10,1 C 8,2 C 25,7 km/h (4 Bft)
24.10.2022 05:45 13,2 C 12,2 C 81 % 1008,8 hPa 0,0 l/m 20,0 km/h (4 Bft) S-SO 160 0 min 0,0 UV-I 0 W/m 10,0 C 7,4 C 33,8 km/h (5 Bft)
24.10.2022 05:48 13,2 C 12,2 C 81 % 1008,9 hPa 0,0 l/m 18,8 km/h (3 Bft) S 188 0 min 0,0 UV-I 0 W/m 10,0 C 7,8 C 38,6 km/h (5 Bft)
24.10.2022 05:51 13,2 C 12,2 C 81 % 1008,9 hPa 0,0 l/m 18,2 km/h (3 Bft) S 184 0 min 0,0 UV-I 0 W/m 10,0 C 7,9 C 29,0 km/h (5 Bft)
24.10.2022 05:54 13,2 C 11,7 C 81 % 1008,8 hPa 0,0 l/m 15,8 km/h (3 Bft) S 180 0 min 0,0 UV-I 0 W/m 10,0 C 8,7 C 30,6 km/h (5 Bft)
24.10.2022 05:57 13,2 C 11,7 C 81 % 1008,8 hPa 0,0 l/m 20,5 km/h (4 Bft) S 186 0 min 0,0 UV-I 0 W/m 10,0 C 7,3 C 35,4 km/h (5 Bft)
24.10.2022 06:00 13,2 C 12,2 C 80 % 1008,7 hPa 0,0 l/m 19,3 km/h (3 Bft) S-SW 194 0 min 0,0 UV-I 0 W/m 9,8 C 7,6 C 32,2 km/h (5 Bft)
24.10.2022 06:03 13,3 C 12,2 C 80 % 1008,7 hPa 0,0 l/m 19,0 km/h (3 Bft) S 169 0 min 0,0 UV-I 0 W/m 9,9 C 7,8 C 38,6 km/h (5 Bft)
24.10.2022 06:06 13,3 C 12,2 C 80 % 1008,7 hPa 0,0 l/m 17,9 km/h (3 Bft) S-SO 162 0 min 0,0 UV-I 0 W/m 9,9 C 8,2 C 29,0 km/h (5 Bft)
24.10.2022 06:09 13,3 C 11,7 C 80 % 1008,7 hPa 0,0 l/m 17,2 km/h (3 Bft) S 185 0 min 0,0 UV-I 0 W/m 9,9 C 8,4 C 32,2 km/h (5 Bft)
24.10.2022 06:12 13,2 C 11,7 C 80 % 1008,8 hPa 0,0 l/m 14,8 km/h (3 Bft) S 178 0 min 0,0 UV-I 0 W/m 9,8 C 9,1 C 22,5 km/h (4 Bft)
24.10.2022 06:15 13,2 C 12,2 C 80 % 1008,8 hPa 0,0 l/m 16,5 km/h (3 Bft) S 172 0 min 0,0 UV-I 0 W/m 9,8 C 8,5 C 33,8 km/h (5 Bft)
24.10.2022 06:18 13,2 C 11,7 C 80 % 1008,7 hPa 0,0 l/m 16,1 km/h (3 Bft) S 188 0 min 0,0 UV-I 0 W/m 9,8 C 8,6 C 25,7 km/h (4 Bft)
24.10.2022 06:21 13,2 C 11,7 C 80 % 1008,8 hPa 0,0 l/m 18,2 km/h (3 Bft) S-SO 154 0 min 0,0 UV-I 0 W/m 9,8 C 7,9 C 32,2 km/h (5 Bft)
24.10.2022 06:24 13,2 C 12,2 C 80 % 1008,7 hPa 0,0 l/m 16,9 km/h (3 Bft) S 178 0 min 0,0 UV-I 0 W/m 9,8 C 8,4 C 29,0 km/h (5 Bft)
24.10.2022 06:27 13,1 C 11,7 C 81 % 1008,7 hPa 0,0 l/m 17,5 km/h (3 Bft) S 182 0 min 0,0 UV-I 0 W/m 9,9 C 8,0 C 32,2 km/h (5 Bft)
24.10.2022 06:30 13,1 C 12,2 C 81 % 1008,6 hPa 0,0 l/m 20,1 km/h (4 Bft) S 180 0 min 0,0 UV-I 0 W/m 9,9 C 7,3 C 38,6 km/h (5 Bft)
24.10.2022 06:33 13,1 C 11,7 C 81 % 1008,7 hPa 0,0 l/m 19,6 km/h (3 Bft) SW 216 0 min 0,0 UV-I 0 W/m 9,9 C 7,4 C 35,4 km/h (5 Bft)
24.10.2022 06:36 13,1 C 12,2 C 81 % 1008,6 hPa 0,0 l/m 20,6 km/h (4 Bft) S 187 0 min 0,0 UV-I 0 W/m 9,9 C 7,1 C 32,2 km/h (5 Bft)
24.10.2022 06:39 13,2 C 12,2 C 80 % 1008,7 hPa 0,0 l/m 21,8 km/h (4 Bft) S-SW 198 0 min 0,0 UV-I 0 W/m 9,8 C 6,9 C 40,2 km/h (6 Bft)
24.10.2022 06:42 13,2 C 12,2 C 80 % 1008,7 hPa 0,0 l/m 23,0 km/h (4 Bft) S-SW 198 0 min 0,0 UV-I 0 W/m 9,8 C 6,6 C 33,8 km/h (5 Bft)
24.10.2022 06:45 13,3 C 12,2 C 80 % 1008,7 hPa 0,0 l/m 19,8 km/h (3 Bft) S-SO 148 0 min 0,0 UV-I 0 W/m 9,9 C 7,6 C 35,4 km/h (5 Bft)
24.10.2022 06:48 13,2 C 12,2 C 80 % 1008,7 hPa 0,0 l/m 20,1 km/h (4 Bft) S-SW 195 0 min 0,0 UV-I 0 W/m 9,8 C 7,4 C 32,2 km/h (5 Bft)
24.10.2022 06:51 13,1 C 12,2 C 80 % 1008,7 hPa 0,0 l/m 19,2 km/h (3 Bft) S-SW 194 0 min 0,0 UV-I 0 W/m 9,7 C 7,5 C 41,8 km/h (6 Bft)
24.10.2022 06:54 13,1 C 11,7 C 81 % 1008,8 hPa 0,0 l/m 21,3 km/h (4 Bft) S 184 0 min 0,0 UV-I 0 W/m 9,9 C 6,9 C 51,5 km/h (7 Bft)
24.10.2022 06:57 13,0 C 11,7 C 81 % 1008,6 hPa 0,0 l/m 18,3 km/h (3 Bft) S 175 0 min 0,0 UV-I 0 W/m 9,8 C 7,7 C 30,6 km/h (5 Bft)
24.10.2022 07:00 13,0 C 11,7 C 81 % 1008,6 hPa 0,0 l/m 19,6 km/h (3 Bft) S-SO 161 0 min 0,0 UV-I 0 W/m 9,8 C 7,3 C 33,8 km/h (5 Bft)
24.10.2022 07:01 13,0 C 11,7 C 81 % 1008,5 hPa 0,0 l/m 16,1 km/h (3 Bft) S-SO 157 0 min 0,0 UV-I 0 W/m 9,8 C 8,4 C 22,5 km/h (4 Bft)
24.10.2022 07:03 13,0 C 11,7 C 81 % 1008,5 hPa 0,0 l/m 18,0 km/h (3 Bft) S 180 0 min 0,0 UV-I 0 W/m 9,8 C 7,8 C 24,1 km/h (4 Bft)
24.10.2022 07:06 13,0 C 11,7 C 81 % 1008,7 hPa 0,0 l/m 21,2 km/h (4 Bft) SW 225 0 min 0,0 UV-I 0 W/m 9,8 C 6,8 C 35,4 km/h (5 Bft)
24.10.2022 07:09 13,0 C 11,7 C 81 % 1008,9 hPa 0,0 l/m 17,2 km/h (3 Bft) S-SO 167 0 min 0,0 UV-I 0 W/m 9,8 C 8,0 C 27,4 km/h (4 Bft)
24.10.2022 07:12 13,1 C 11,7 C 81 % 1008,9 hPa 0,0 l/m 20,1 km/h (4 Bft) S 180 0 min 0,0 UV-I 0 W/m 9,9 C 7,3 C 35,4 km/h (5 Bft)
24.10.2022 07:15 13,1 C 12,2 C 81 % 1008,9 hPa 0,0 l/m 21,6 km/h (4 Bft) S 169 0 min 0,0 UV-I 0 W/m 9,9 C 6,9 C 43,5 km/h (6 Bft)
24.10.2022 07:18 13,0 C 11,7 C 81 % 1009,0 hPa 0,0 l/m 21,2 km/h (4 Bft) S 173 0 min 0,0 UV-I 0 W/m 9,8 C 6,8 C 33,8 km/h (5 Bft)
24.10.2022 07:21 13,0 C 11,7 C 82 % 1009,0 hPa 0,0 l/m 19,2 km/h (3 Bft) S 184 0 min 0,0 UV-I 0 W/m 10,0 C 7,4 C 33,8 km/h (5 Bft)
24.10.2022 07:24 12,9 C 11,7 C 82 % 1009,1 hPa 0,0 l/m 20,0 km/h (4 Bft) S-SW 192 0 min 0,0 UV-I 0 W/m 9,9 C 7,0 C 30,6 km/h (5 Bft)
24.10.2022 07:27 12,9 C 11,7 C 82 % 1009,2 hPa 0,0 l/m 21,4 km/h (4 Bft) S-SO 164 0 min 0,0 UV-I 0 W/m 9,9 C 6,6 C 38,6 km/h (5 Bft)
24.10.2022 07:30 13,0 C 12,2 C 81 % 1009,1 hPa 0,0 l/m 21,7 km/h (4 Bft) S 175 0 min 0,0 UV-I 0 W/m 9,8 C 6,7 C 48,3 km/h (6 Bft)
24.10.2022 07:33 12,9 C 11,7 C 82 % 1009,1 hPa 0,0 l/m 21,9 km/h (4 Bft) S-SW 203 0 min 0,0 UV-I 0 W/m 9,9 C 6,5 C 35,4 km/h (5 Bft)
24.10.2022 07:36 13,0 C 11,7 C 82 % 1009,0 hPa 0,0 l/m 23,7 km/h (4 Bft) S 188 0 min 0,0 UV-I 0 W/m 10,0 C 6,2 C 38,6 km/h (5 Bft)
24.10.2022 07:39 13,0 C 11,7 C 81 % 1008,8 hPa 0,0 l/m 20,9 km/h (4 Bft) S-SW 196 0 min 0,0 UV-I 0 W/m 9,8 C 6,9 C 32,2 km/h (5 Bft)
24.10.2022 07:42 12,9 C 12,2 C 82 % 1008,9 hPa 0,0 l/m 20,9 km/h (4 Bft) S 181 0 min 0,0 UV-I 0 W/m 9,9 C 6,8 C 41,8 km/h (6 Bft)
24.10.2022 07:45 12,9 C 11,7 C 82 % 1008,9 hPa 0,0 l/m 17,9 km/h (3 Bft) S 191 0 min 0,0 UV-I 0 W/m 9,9 C 7,7 C 27,4 km/h (4 Bft)
24.10.2022 07:48 12,8 C 11,7 C 82 % 1009,0 hPa 0,0 l/m 19,3 km/h (3 Bft) S 177 0 min 0,0 UV-I 0 W/m 9,8 C 7,1 C 33,8 km/h (5 Bft)
24.10.2022 07:51 12,9 C 11,7 C 82 % 1008,9 hPa 0,0 l/m 20,2 km/h (4 Bft) S-SO 166 0 min 0,0 UV-I 0 W/m 9,9 C 7,0 C 32,2 km/h (5 Bft)
24.10.2022 07:54 12,8 C 11,7 C 82 % 1008,8 hPa 0,0 l/m 20,2 km/h (4 Bft) S-SO 165 0 min 0,0 UV-I 0 W/m 9,8 C 6,8 C 40,2 km/h (6 Bft)
24.10.2022 07:57 12,8 C 11,7 C 82 % 1008,8 hPa 0,0 l/m 21,7 km/h (4 Bft) S-SO 162 0 min 0,0 UV-I 0 W/m 9,8 C 6,4 C 33,8 km/h (5 Bft)
24.10.2022 08:00 12,9 C 11,7 C 82 % 1008,8 hPa 0,0 l/m 20,9 km/h (4 Bft) S-SO 163 0 min 0,0 UV-I 0 W/m 9,9 C 6,8 C 33,8 km/h (5 Bft)
24.10.2022 08:03 12,9 C 12,2 C 81 % 1008,8 hPa 0,0 l/m 24,0 km/h (4 Bft) S 184 0 min 0,0 UV-I 0 W/m 9,7 C 6,0 C 46,7 km/h (6 Bft)
24.10.2022 08:06 12,9 C 12,2 C 81 % 1008,9 hPa 0,0 l/m 17,9 km/h (3 Bft) S-SO 152 0 min 0,0 UV-I 0 W/m 9,7 C 7,7 C 37,0 km/h (5 Bft)
24.10.2022 08:09 12,9 C 11,7 C 81 % 1009,0 hPa 0,0 l/m 18,9 km/h (3 Bft) S-SO 153 0 min 0,0 UV-I 0 W/m 9,7 C 7,4 C 29,0 km/h (5 Bft)
24.10.2022 08:12 12,9 C 11,7 C 81 % 1009,0 hPa 0,0 l/m 22,8 km/h (4 Bft) S-SO 162 0 min 0,0 UV-I 0 W/m 9,7 C 6,3 C 37,0 km/h (5 Bft)
24.10.2022 08:15 12,9 C 11,7 C 81 % 1009,0 hPa 0,0 l/m 19,6 km/h (3 Bft) S 173 0 min 0,0 UV-I 0 W/m 9,7 C 7,1 C 32,2 km/h (5 Bft)
24.10.2022 08:18 12,9 C 11,7 C 81 % 1009,0 hPa 0,0 l/m 18,8 km/h (3 Bft) SO 129 0 min 0,0 UV-I 0 W/m 9,7 C 7,4 C 38,6 km/h (5 Bft)
24.10.2022 08:21 12,9 C 11,7 C 81 % 1009,0 hPa 0,0 l/m 18,4 km/h (3 Bft) S 182 0 min 0,0 UV-I 4 W/m 9,7 C 7,5 C 32,2 km/h (5 Bft)
24.10.2022 08:24 12,8 C 11,7 C 81 % 1009,0 hPa 0,0 l/m 17,8 km/h (3 Bft) SO 144 0 min 0,0 UV-I 7 W/m 9,6 C 7,6 C 30,6 km/h (5 Bft)
24.10.2022 08:27 12,9 C 12,2 C 81 % 1009,0 hPa 0,0 l/m 24,1 km/h (4 Bft) S-SW 207 0 min 0,0 UV-I 9 W/m 9,7 C 6,0 C 37,0 km/h (5 Bft)
24.10.2022 08:30 12,9 C 11,7 C 81 % 1008,9 hPa 0,0 l/m 17,4 km/h (3 Bft) S-SW 195 0 min 0,0 UV-I 11 W/m 9,7 C 7,8 C 30,6 km/h (5 Bft)
24.10.2022 08:33 12,8 C 11,7 C 81 % 1008,9 hPa 0,0 l/m 17,2 km/h (3 Bft) S 186 0 min 0,0 UV-I 12 W/m 9,6 C 7,8 C 29,0 km/h (5 Bft)
24.10.2022 08:36 12,8 C 11,7 C 81 % 1009,0 hPa 0,0 l/m 22,6 km/h (4 Bft) S 180 0 min 0,0 UV-I 14 W/m 9,6 C 6,2 C 32,2 km/h (5 Bft)
24.10.2022 08:39 12,8 C 11,7 C 81 % 1009,0 hPa 0,0 l/m 18,1 km/h (3 Bft) S-SW 200 0 min 0,0 UV-I 16 W/m 9,6 C 7,5 C 32,2 km/h (5 Bft)
24.10.2022 08:42 12,7 C 11,7 C 82 % 1009,1 hPa 0,0 l/m 17,4 km/h (3 Bft) S 184 0 min 0,0 UV-I 18 W/m 9,7 C 7,6 C 30,6 km/h (5 Bft)
24.10.2022 08:45 12,8 C 11,7 C 82 % 1009,1 hPa 0,0 l/m 19,8 km/h (3 Bft) S 186 0 min 0,0 UV-I 19 W/m 9,8 C 7,0 C 30,6 km/h (5 Bft)
24.10.2022 08:48 12,8 C 11,7 C 82 % 1009,1 hPa 0,0 l/m 19,8 km/h (3 Bft) S 188 0 min 0,0 UV-I 21 W/m 9,8 C 7,0 C 33,8 km/h (5 Bft)
24.10.2022 08:51 12,8 C 11,7 C 82 % 1009,1 hPa 0,0 l/m 16,2 km/h (3 Bft) S-SW 210 0 min 0,0 UV-I 25 W/m 9,8 C 8,1 C 25,7 km/h (4 Bft)
24.10.2022 08:54 12,8 C 11,7 C 82 % 1009,1 hPa 0,0 l/m 22,6 km/h (4 Bft) S 184 0 min 0,0 UV-I 26 W/m 9,8 C 6,2 C 37,0 km/h (5 Bft)
24.10.2022 08:57 12,8 C 12,2 C 82 % 1009,1 hPa 0,0 l/m 19,2 km/h (3 Bft) S-SO 159 0 min 0,0 UV-I 28 W/m 9,8 C 7,1 C 33,8 km/h (5 Bft)
24.10.2022 09:00 12,9 C 12,2 C 82 % 1009,1 hPa 0,0 l/m 17,9 km/h (3 Bft) S-SW 198 0 min 0,0 UV-I 32 W/m 9,9 C 7,7 C 30,6 km/h (5 Bft)
24.10.2022 09:03 12,9 C 12,2 C 82 % 1009,3 hPa 0,0 l/m 18,3 km/h (3 Bft) SW 227 0 min 0,0 UV-I 34 W/m 9,9 C 7,5 C 33,8 km/h (5 Bft)
24.10.2022 09:06 12,9 C 12,2 C 82 % 1009,3 hPa 0,0 l/m 22,9 km/h (4 Bft) S-SO 162 0 min 0,0 UV-I 39 W/m 9,9 C 6,3 C 35,4 km/h (5 Bft)
24.10.2022 09:09 13,0 C 12,8 C 82 % 1009,4 hPa 0,0 l/m 22,5 km/h (4 Bft) S 177 0 min 0,0 UV-I 45 W/m 10,0 C 6,5 C 38,6 km/h (5 Bft)
24.10.2022 09:12 13,0 C 12,8 C 82 % 1009,4 hPa 0,0 l/m 19,3 km/h (3 Bft) S 190 0 min 0,0 UV-I 53 W/m 10,0 C 7,4 C 33,8 km/h (5 Bft)
24.10.2022 09:15 13,1 C 12,8 C 82 % 1009,4 hPa 0,0 l/m 24,7 km/h (4 Bft) S-SW 198 0 min 0,0 UV-I 66 W/m 10,1 C 6,1 C 37,0 km/h (5 Bft)
24.10.2022 09:18 13,1 C 12,8 C 81 % 1009,5 hPa 0,0 l/m 21,7 km/h (4 Bft) SW 222 0 min 0,0 UV-I 54 W/m 9,9 C 6,8 C 30,6 km/h (5 Bft)
24.10.2022 09:21 13,2 C 12,8 C 81 % 1009,6 hPa 0,0 l/m 19,0 km/h (3 Bft) S-SO 162 0 min 0,0 UV-I 44 W/m 10,0 C 7,7 C 37,0 km/h (5 Bft)
24.10.2022 09:24 13,2 C 12,8 C 82 % 1009,7 hPa 0,0 l/m 22,2 km/h (4 Bft) S 184 0 min 0,0 UV-I 35 W/m 10,2 C 6,8 C 35,4 km/h (5 Bft)
24.10.2022 09:27 13,1 C 12,8 C 82 % 1009,7 hPa 0,0 l/m 20,3 km/h (4 Bft) SO 133 0 min 0,0 UV-I 31 W/m 10,1 C 7,2 C 35,4 km/h (5 Bft)
24.10.2022 09:30 13,1 C 12,8 C 82 % 1009,7 hPa 0,0 l/m 21,3 km/h (4 Bft) S 186 0 min 0,0 UV-I 36 W/m 10,1 C 6,9 C 41,8 km/h (6 Bft)
24.10.2022 09:33 13,1 C 12,8 C 82 % 1009,5 hPa 0,0 l/m 20,7 km/h (4 Bft) S 175 0 min 0,0 UV-I 43 W/m 10,1 C 7,1 C 37,0 km/h (5 Bft)
24.10.2022 09:36 13,1 C 12,8 C 81 % 1009,8 hPa 0,0 l/m 25,3 km/h (4 Bft) S-SW 196 0 min 0,0 UV-I 43 W/m 9,9 C 6,0 C 43,5 km/h (6 Bft)
24.10.2022 09:39 13,1 C 12,8 C 82 % 1009,8 hPa 0,0 l/m 18,8 km/h (3 Bft) S-SW 196 0 min 0,0 UV-I 41 W/m 10,1 C 7,6 C 35,4 km/h (5 Bft)
24.10.2022 09:42 13,1 C 12,8 C 82 % 1009,8 hPa 0,0 l/m 21,3 km/h (4 Bft) S 185 0 min 0,0 UV-I 44 W/m 10,1 C 6,9 C 41,8 km/h (6 Bft)
24.10.2022 09:45 13,2 C 12,8 C 82 % 1009,8 hPa 0,0 l/m 21,3 km/h (4 Bft) S-SW 205 0 min 0,0 UV-I 47 W/m 10,2 C 7,1 C 41,8 km/h (6 Bft)
24.10.2022 09:48 13,2 C 12,8 C 82 % 1009,9 hPa 0,0 l/m 24,0 km/h (4 Bft) S-SO 160 0 min 0,0 UV-I 46 W/m 10,2 C 6,4 C 48,3 km/h (6 Bft)
24.10.2022 09:51 13,2 C 12,8 C 82 % 1009,9 hPa 0,0 l/m 18,8 km/h (3 Bft) S 184 0 min 0,0 UV-I 42 W/m 10,2 C 7,8 C 41,8 km/h (6 Bft)
24.10.2022 09:54 13,2 C 12,8 C 82 % 1009,9 hPa 0,0 l/m 21,5 km/h (4 Bft) S-SO 162 0 min 0,0 UV-I 66 W/m 10,2 C 7,0 C 35,4 km/h (5 Bft)
24.10.2022 09:57 13,3 C 13,3 C 82 % 1009,9 hPa 0,0 l/m 22,0 km/h (4 Bft) S 188 0 min 0,0 UV-I 107 W/m 10,3 C 7,0 C 32,2 km/h (5 Bft)
24.10.2022 10:00 13,3 C 13,3 C 82 % 1009,9 hPa 0,0 l/m 23,5 km/h (4 Bft) S 182 0 min 0,5 UV-I 146 W/m 10,3 C 6,6 C 38,6 km/h (5 Bft)
24.10.2022 10:03 13,4 C 13,3 C 82 % 1009,9 hPa 0,0 l/m 21,5 km/h (4 Bft) S 180 0 min 0,5 UV-I 137 W/m 10,4 C 7,3 C 35,4 km/h (5 Bft)
24.10.2022 10:06 13,4 C 13,3 C 82 % 1009,8 hPa 0,0 l/m 21,4 km/h (4 Bft) S 175 0 min 0,5 UV-I 128 W/m 10,4 C 7,3 C 37,0 km/h (5 Bft)
24.10.2022 10:09 13,4 C 13,3 C 82 % 1010,1 hPa 0,0 l/m 21,9 km/h (4 Bft) S 187 0 min 0,5 UV-I 135 W/m 10,4 C 7,2 C 35,4 km/h (5 Bft)
24.10.2022 10:12 13,4 C 13,9 C 82 % 1010,0 hPa 0,0 l/m 17,0 km/h (3 Bft) S-SW 212 0 min 0,5 UV-I 144 W/m 10,4 C 8,6 C 27,4 km/h (4 Bft)
24.10.2022 10:15 13,4 C 13,3 C 82 % 1010,1 hPa 0,0 l/m 23,0 km/h (4 Bft) S-SW 194 0 min 0,2 UV-I 99 W/m 10,4 C 6,9 C 45,1 km/h (6 Bft)
24.10.2022 10:18 13,4 C 13,3 C 82 % 1010,1 hPa 0,0 l/m 23,6 km/h (4 Bft) S-SO 155 0 min 0,3 UV-I 90 W/m 10,4 C 6,8 C 35,4 km/h (5 Bft)
24.10.2022 10:21 13,4 C 13,3 C 82 % 1010,0 hPa 0,0 l/m 23,1 km/h (4 Bft) S 184 0 min 0,5 UV-I 84 W/m 10,4 C 6,9 C 38,6 km/h (5 Bft)
24.10.2022 10:24 13,3 C 13,3 C 82 % 1009,7 hPa 0,0 l/m 19,8 km/h (3 Bft) S-SO 149 0 min 0,4 UV-I 63 W/m 10,3 C 7,6 C 29,0 km/h (5 Bft)
24.10.2022 10:27 13,3 C 13,3 C 82 % 1009,9 hPa 0,0 l/m 23,3 km/h (4 Bft) S-SW 202 0 min 0,7 UV-I 93 W/m 10,3 C 6,7 C 41,8 km/h (6 Bft)
24.10.2022 10:30 13,3 C 13,9 C 82 % 1010,0 hPa 0,0 l/m 17,5 km/h (3 Bft) S-SW 207 0 min 0,8 UV-I 119 W/m 10,3 C 8,3 C 27,4 km/h (4 Bft)
24.10.2022 10:33 13,6 C 14,4 C 82 % 1010,1 hPa 0,0 l/m 24,1 km/h (4 Bft) S 180 0 min 0,8 UV-I 194 W/m 10,6 C 6,9 C 37,0 km/h (5 Bft)
24.10.2022 10:36 13,6 C 13,9 C 81 % 1010,2 hPa 0,0 l/m 24,1 km/h (4 Bft) S-SO 167 0 min 0,8 UV-I 149 W/m 10,4 C 6,9 C 43,5 km/h (6 Bft)
24.10.2022 10:39 13,6 C 13,9 C 81 % 1010,2 hPa 0,0 l/m 21,9 km/h (4 Bft) S-SO 164 0 min 0,7 UV-I 134 W/m 10,4 C 7,4 C 40,2 km/h (6 Bft)
24.10.2022 10:42 13,5 C 13,9 C 81 % 1010,2 hPa 0,0 l/m 25,7 km/h (4 Bft) S-SW 196 0 min 0,7 UV-I 126 W/m 10,3 C 6,4 C 45,1 km/h (6 Bft)
24.10.2022 10:45 13,6 C 13,9 C 81 % 1010,1 hPa 0,0 l/m 20,5 km/h (4 Bft) SO 136 0 min 0,7 UV-I 174 W/m 10,4 C 7,8 C 35,4 km/h (5 Bft)
24.10.2022 10:48 13,6 C 13,9 C 81 % 1010,2 hPa 0,0 l/m 23,5 km/h (4 Bft) S 171 0 min 0,8 UV-I 187 W/m 10,4 C 7,1 C 37,0 km/h (5 Bft)
24.10.2022 10:51 13,7 C 14,4 C 80 % 1010,0 hPa 0,0 l/m 26,2 km/h (4 Bft) S-SO 156 0 min 0,9 UV-I 257 W/m 10,3 C 6,6 C 41,8 km/h (6 Bft)
24.10.2022 10:54 13,7 C 13,9 C 80 % 1010,2 hPa 0,0 l/m 24,8 km/h (4 Bft) S-SO 148 0 min 0,8 UV-I 199 W/m 10,3 C 6,9 C 56,3 km/h (7 Bft)
24.10.2022 10:57 13,7 C 15,0 C 80 % 1010,3 hPa 0,0 l/m 24,6 km/h (4 Bft) S-SW 198 0 min 0,8 UV-I 161 W/m 10,3 C 6,9 C 43,5 km/h (6 Bft)
24.10.2022 11:00 13,8 C 15,0 C 80 % 1010,3 hPa 0,0 l/m 22,3 km/h (4 Bft) S-SW 201 0 min 0,9 UV-I 185 W/m 10,4 C 7,6 C 43,5 km/h (6 Bft)
24.10.2022 11:03 13,8 C 14,4 C 80 % 1010,3 hPa 0,0 l/m 18,7 km/h (3 Bft) SW 229 0 min 0,8 UV-I 177 W/m 10,4 C 8,6 C 35,4 km/h (5 Bft)
24.10.2022 11:06 14,0 C 16,1 C 80 % 1010,2 hPa 0,0 l/m 22,9 km/h (4 Bft) SW 217 0 min 1,0 UV-I 291 W/m 10,6 C 7,7 C 35,4 km/h (5 Bft)
24.10.2022 11:09 14,1 C 15,0 C 79 % 1010,4 hPa 0,0 l/m 22,0 km/h (4 Bft) S 186 3 min 1,0 UV-I 322 W/m 10,5 C 8,1 C 40,2 km/h (6 Bft)
24.10.2022 11:12 14,0 C 15,6 C 79 % 1010,5 hPa 0,0 l/m 24,7 km/h (4 Bft) S 176 0 min 1,0 UV-I 170 W/m 10,4 C 7,3 C 40,2 km/h (6 Bft)
24.10.2022 11:15 13,9 C 14,4 C 78 % 1010,3 hPa 0,0 l/m 27,7 km/h (4 Bft) S 177 0 min 1,0 UV-I 195 W/m 10,1 C 6,6 C 43,5 km/h (6 Bft)
24.10.2022 11:18 13,9 C 14,4 C 78 % 1010,4 hPa 0,0 l/m 25,0 km/h (4 Bft) S-SW 209 0 min 1,1 UV-I 206 W/m 10,1 C 7,1 C 38,6 km/h (5 Bft)
24.10.2022 11:21 13,9 C 14,4 C 77 % 1010,3 hPa 0,0 l/m 24,3 km/h (4 Bft) S-SW 200 0 min 0,8 UV-I 179 W/m 9,9 C 7,3 C 38,6 km/h (5 Bft)
24.10.2022 11:24 13,9 C 14,4 C 78 % 1010,4 hPa 0,0 l/m 20,6 km/h (4 Bft) S 190 0 min 1,0 UV-I 176 W/m 10,1 C 8,2 C 33,8 km/h (5 Bft)
24.10.2022 11:27 13,9 C 13,9 C 77 % 1010,7 hPa 0,0 l/m 25,5 km/h (4 Bft) S-SW 200 0 min 0,8 UV-I 151 W/m 9,9 C 7,0 C 38,6 km/h (5 Bft)
24.10.2022 11:30 13,8 C 13,9 C 77 % 1010,7 hPa 0,0 l/m 23,2 km/h (4 Bft) S-SW 210 0 min 0,7 UV-I 132 W/m 9,8 C 7,4 C 38,6 km/h (5 Bft)
24.10.2022 11:33 13,8 C 13,9 C 78 % 1010,7 hPa 0,0 l/m 22,7 km/h (4 Bft) S 186 0 min 0,5 UV-I 109 W/m 10,0 C 7,5 C 38,6 km/h (5 Bft)
24.10.2022 11:36 13,7 C 13,9 C 78 % 1010,6 hPa 0,0 l/m 25,2 km/h (4 Bft) S 188 0 min 0,7 UV-I 135 W/m 9,9 C 6,8 C 37,0 km/h (5 Bft)
24.10.2022 11:39 13,7 C 13,9 C 78 % 1010,7 hPa 0,0 l/m 19,6 km/h (3 Bft) SW 215 0 min 0,8 UV-I 169 W/m 9,9 C 8,2 C 35,4 km/h (5 Bft)
24.10.2022 11:42 13,8 C 13,9 C 78 % 1010,7 hPa 0,0 l/m 18,7 km/h (3 Bft) S-SW 199 0 min 0,7 UV-I 148 W/m 10,0 C 8,6 C 35,4 km/h (5 Bft)
24.10.2022 11:45 13,8 C 13,9 C 79 % 1010,7 hPa 0,0 l/m 17,5 km/h (3 Bft) S-SW 198 0 min 0,7 UV-I 119 W/m 10,2 C 8,9 C 27,4 km/h (4 Bft)
24.10.2022 11:48 13,8 C 13,9 C 79 % 1010,8 hPa 0,0 l/m 16,6 km/h (3 Bft) S-SW 202 0 min 0,6 UV-I 103 W/m 10,2 C 9,2 C 25,7 km/h (4 Bft)
24.10.2022 11:51 13,8 C 13,9 C 79 % 1010,7 hPa 0,0 l/m 14,7 km/h (3 Bft) S-SW 196 0 min 0,7 UV-I 115 W/m 10,2 C 9,8 C 25,7 km/h (4 Bft)
24.10.2022 11:54 13,8 C 13,9 C 79 % 1010,8 hPa 0,0 l/m 17,3 km/h (3 Bft) S-SO 159 0 min 0,9 UV-I 132 W/m 10,2 C 9,0 C 27,4 km/h (4 Bft)
24.10.2022 11:57 13,9 C 15,6 C 79 % 1010,7 hPa 0,0 l/m 19,9 km/h (4 Bft) S-SW 211 0 min 1,2 UV-I 229 W/m 10,3 C 8,4 C 27,4 km/h (4 Bft)
24.10.2022 12:00 14,1 C 15,0 C 78 % 1010,8 hPa 0,0 l/m 18,7 km/h (3 Bft) SW 223 0 min 1,1 UV-I 191 W/m 10,3 C 8,9 C 29,0 km/h (5 Bft)
24.10.2022 12:03 14,1 C 15,0 C 78 % 1010,7 hPa 0,0 l/m 20,2 km/h (4 Bft) S-SW 213 0 min 1,1 UV-I 166 W/m 10,3 C 8,5 C 27,4 km/h (4 Bft)
24.10.2022 12:06 14,1 C 14,4 C 77 % 1010,8 hPa 0,0 l/m 24,1 km/h (4 Bft) S 182 0 min 1,0 UV-I 190 W/m 10,1 C 7,6 C 38,6 km/h (5 Bft)
24.10.2022 12:09 14,1 C 14,4 C 78 % 1010,9 hPa 0,0 l/m 20,1 km/h (4 Bft) SW 215 0 min 1,1 UV-I 200 W/m 10,3 C 8,6 C 29,0 km/h (5 Bft)
24.10.2022 12:12 14,1 C 15,0 C 78 % 1011,0 hPa 0,0 l/m 24,6 km/h (4 Bft) S-SW 204 0 min 1,2 UV-I 205 W/m 10,3 C 7,5 C 37,0 km/h (5 Bft)
24.10.2022 12:15 14,2 C 16,1 C 77 % 1010,9 hPa 0,0 l/m 25,1 km/h (4 Bft) S-SW 204 0 min 1,4 UV-I 206 W/m 10,2 C 7,5 C 37,0 km/h (5 Bft)
24.10.2022 12:18 14,2 C 15,0 C 77 % 1011,0 hPa 0,0 l/m 24,6 km/h (4 Bft) S-SW 209 0 min 1,3 UV-I 200 W/m 10,2 C 7,6 C 45,1 km/h (6 Bft)
24.10.2022 12:21 14,2 C 14,4 C 76 % 1011,1 hPa 0,0 l/m 25,7 km/h (4 Bft) S-SW 209 0 min 1,3 UV-I 158 W/m 10,0 C 7,4 C 37,0 km/h (5 Bft)
24.10.2022 12:24 14,2 C 15,6 C 77 % 1011,0 hPa 0,0 l/m 24,0 km/h (4 Bft) S-SW 211 0 min 1,4 UV-I 190 W/m 10,2 C 7,7 C 38,6 km/h (5 Bft)
24.10.2022 12:27 14,4 C 17,8 C 77 % 1011,0 hPa 0,0 l/m 23,4 km/h (4 Bft) S 181 0 min 1,5 UV-I 190 W/m 10,4 C 8,1 C 37,0 km/h (5 Bft)
24.10.2022 12:30 14,4 C 16,1 C 76 % 1011,1 hPa 0,0 l/m 23,8 km/h (4 Bft) S-SW 205 0 min 1,5 UV-I 215 W/m 10,2 C 8,1 C 41,8 km/h (6 Bft)
24.10.2022 12:33 14,4 C 16,1 C 77 % 1011,2 hPa 0,0 l/m 24,3 km/h (4 Bft) SW 222 0 min 1,4 UV-I 231 W/m 10,4 C 7,9 C 38,6 km/h (5 Bft)
24.10.2022 12:36 14,4 C 15,6 C 76 % 1010,9 hPa 0,0 l/m 25,5 km/h (4 Bft) S-SO 160 0 min 1,5 UV-I 273 W/m 10,2 C 7,7 C 37,0 km/h (5 Bft)
24.10.2022 12:39 14,4 C 16,1 C 76 % 1011,2 hPa 0,0 l/m 21,7 km/h (4 Bft) S 184 0 min 1,5 UV-I 235 W/m 10,2 C 8,5 C 33,8 km/h (5 Bft)
24.10.2022 12:42 14,5 C 15,6 C 77 % 1011,4 hPa 0,0 l/m 20,4 km/h (4 Bft) S-SW 209 0 min 1,2 UV-I 234 W/m 10,5 C 9,0 C 33,8 km/h (5 Bft)
24.10.2022 12:45 14,4 C 15,0 C 77 % 1011,2 hPa 0,0 l/m 20,4 km/h (4 Bft) S-SW 194 0 min 1,2 UV-I 188 W/m 10,4 C 8,9 C 32,2 km/h (5 Bft)
24.10.2022 12:48 14,3 C 14,4 C 76 % 1011,3 hPa 0,0 l/m 26,8 km/h (4 Bft) S-SW 198 0 min 0,8 UV-I 135 W/m 10,1 C 7,3 C 41,8 km/h (6 Bft)
24.10.2022 12:51 14,2 C 13,9 C 77 % 1011,4 hPa 0,0 l/m 22,1 km/h (4 Bft) SW 232 0 min 0,7 UV-I 119 W/m 10,2 C 8,2 C 30,6 km/h (5 Bft)
24.10.2022 12:54 14,1 C 13,9 C 77 % 1011,4 hPa 0,0 l/m 19,8 km/h (3 Bft) S-SW 192 0 min 0,8 UV-I 131 W/m 10,1 C 8,6 C 41,8 km/h (6 Bft)
24.10.2022 12:57 14,1 C 13,9 C 77 % 1011,3 hPa 0,0 l/m 23,2 km/h (4 Bft) S 186 0 min 0,8 UV-I 113 W/m 10,1 C 7,8 C 41,8 km/h (6 Bft)
24.10.2022 13:00 14,1 C 13,9 C 78 % 1011,3 hPa 0,0 l/m 22,5 km/h (4 Bft) S-SW 196 0 min 0,6 UV-I 107 W/m 10,3 C 8,0 C 35,4 km/h (5 Bft)
24.10.2022 13:03 14,1 C 13,9 C 77 % 1011,4 hPa 0,0 l/m 18,4 km/h (3 Bft) S-SO 161 0 min 0,6 UV-I 110 W/m 10,1 C 9,0 C 30,6 km/h (5 Bft)
24.10.2022 13:06 14,1 C 13,9 C 78 % 1011,5 hPa 0,0 l/m 20,2 km/h (4 Bft) S 190 0 min 0,7 UV-I 118 W/m 10,3 C 8,5 C 29,0 km/h (5 Bft)
24.10.2022 13:09 14,0 C 13,9 C 77 % 1011,5 hPa 0,0 l/m 22,2 km/h (4 Bft) S-SW 198 0 min 1,0 UV-I 149 W/m 10,0 C 7,9 C 38,6 km/h (5 Bft)
24.10.2022 13:12 14,1 C 13,9 C 78 % 1011,4 hPa 0,0 l/m 23,8 km/h (4 Bft) S 189 0 min 0,7 UV-I 127 W/m 10,3 C 7,7 C 35,4 km/h (5 Bft)
24.10.2022 13:15 14,1 C 13,9 C 78 % 1011,4 hPa 0,0 l/m 21,0 km/h (4 Bft) S 173 0 min 0,9 UV-I 150 W/m 10,3 C 8,3 C 32,2 km/h (5 Bft)
24.10.2022 13:18 14,1 C 14,4 C 78 % 1011,5 hPa 0,0 l/m 22,9 km/h (4 Bft) S-SW 200 0 min 0,8 UV-I 158 W/m 10,3 C 7,9 C 41,8 km/h (6 Bft)
24.10.2022 13:21 14,1 C 13,9 C 78 % 1011,4 hPa 0,0 l/m 25,1 km/h (4 Bft) S 190 0 min 0,9 UV-I 166 W/m 10,3 C 7,4 C 40,2 km/h (6 Bft)
24.10.2022 13:24 14,2 C 14,4 C 78 % 1011,3 hPa 0,0 l/m 21,9 km/h (4 Bft) S 187 0 min 1,2 UV-I 231 W/m 10,4 C 8,2 C 29,0 km/h (5 Bft)
24.10.2022 13:27 14,3 C 15,0 C 78 % 1011,4 hPa 0,0 l/m 20,2 km/h (4 Bft) S-SO 160 0 min 1,3 UV-I 215 W/m 10,5 C 8,8 C 37,0 km/h (5 Bft)
24.10.2022 13:30 14,3 C 14,4 C 78 % 1011,4 hPa 0,0 l/m 20,0 km/h (4 Bft) S 185 0 min 1,1 UV-I 150 W/m 10,5 C 8,8 C 38,6 km/h (5 Bft)
24.10.2022 13:33 14,3 C 14,4 C 78 % 1011,5 hPa 0,0 l/m 22,8 km/h (4 Bft) S 178 0 min 1,0 UV-I 216 W/m 10,5 C 8,1 C 38,6 km/h (5 Bft)
24.10.2022 13:36 14,3 C 14,4 C 78 % 1011,5 hPa 0,0 l/m 26,7 km/h (4 Bft) S 184 0 min 1,2 UV-I 199 W/m 10,5 C 7,3 C 45,1 km/h (6 Bft)
24.10.2022 13:39 14,3 C 14,4 C 78 % 1011,4 hPa 0,0 l/m 18,9 km/h (3 Bft) S-SW 193 0 min 1,0 UV-I 126 W/m 10,5 C 9,1 C 29,0 km/h (5 Bft)
24.10.2022 13:42 14,3 C 14,4 C 78 % 1011,4 hPa 0,0 l/m 19,1 km/h (3 Bft) S-SW 197 0 min 1,0 UV-I 145 W/m 10,5 C 9,1 C 32,2 km/h (5 Bft)
24.10.2022 13:45 14,2 C 14,4 C 78 % 1011,4 hPa 0,0 l/m 20,0 km/h (4 Bft) S 186 0 min 0,9 UV-I 116 W/m 10,4 C 8,7 C 33,8 km/h (5 Bft)
24.10.2022 13:48 14,2 C 14,4 C 78 % 1011,3 hPa 0,0 l/m 20,3 km/h (4 Bft) SW 231 0 min 1,0 UV-I 145 W/m 10,4 C 8,6 C 29,0 km/h (5 Bft)
24.10.2022 13:51 14,3 C 14,4 C 78 % 1011,3 hPa 0,0 l/m 19,7 km/h (3 Bft) S 191 0 min 1,0 UV-I 157 W/m 10,5 C 8,9 C 30,6 km/h (5 Bft)
24.10.2022 13:54 14,3 C 13,9 C 77 % 1011,3 hPa 0,0 l/m 23,4 km/h (4 Bft) SW 217 0 min 0,8 UV-I 112 W/m 10,3 C 8,0 C 35,4 km/h (5 Bft)
24.10.2022 13:57 14,2 C 13,9 C 77 % 1011,4 hPa 0,0 l/m 24,0 km/h (4 Bft) SW 216 0 min 0,6 UV-I 92 W/m 10,2 C 7,7 C 32,2 km/h (5 Bft)
24.10.2022 14:00 14,2 C 13,9 C 77 % 1011,5 hPa 0,0 l/m 22,1 km/h (4 Bft) S 178 0 min 0,8 UV-I 117 W/m 10,2 C 8,2 C 33,8 km/h (5 Bft)
24.10.2022 14:03 14,1 C 13,9 C 77 % 1011,3 hPa 0,0 l/m 27,8 km/h (4 Bft) S 188 0 min 0,8 UV-I 84 W/m 10,1 C 6,8 C 45,1 km/h (6 Bft)
24.10.2022 14:06 14,0 C 13,9 C 78 % 1011,5 hPa 0,0 l/m 26,6 km/h (4 Bft) S-SW 207 0 min 0,6 UV-I 90 W/m 10,2 C 6,9 C 46,7 km/h (6 Bft)
24.10.2022 14:09 14,0 C 13,9 C 78 % 1011,4 hPa 0,0 l/m 25,9 km/h (4 Bft) S-SW 194 0 min 0,7 UV-I 105 W/m 10,2 C 7,1 C 41,8 km/h (6 Bft)
24.10.2022 14:12 14,0 C 13,9 C 78 % 1011,4 hPa 0,0 l/m 24,2 km/h (4 Bft) S 181 0 min 0,7 UV-I 100 W/m 10,2 C 7,4 C 40,2 km/h (6 Bft)
24.10.2022 14:15 14,0 C 13,9 C 78 % 1011,5 hPa 0,0 l/m 26,3 km/h (4 Bft) S 181 0 min 0,6 UV-I 99 W/m 10,2 C 7,0 C 46,7 km/h (6 Bft)
24.10.2022 14:18 14,0 C 13,9 C 78 % 1011,5 hPa 0,0 l/m 22,6 km/h (4 Bft) S 190 0 min 0,9 UV-I 112 W/m 10,2 C 7,8 C 38,6 km/h (5 Bft)
24.10.2022 14:21 14,1 C 13,9 C 78 % 1011,4 hPa 0,0 l/m 23,1 km/h (4 Bft) S 169 0 min 0,9 UV-I 122 W/m 10,3 C 7,8 C 37,0 km/h (5 Bft)
24.10.2022 14:24 14,1 C 14,4 C 79 % 1011,3 hPa 0,0 l/m 21,2 km/h (4 Bft) S 190 0 min 1,0 UV-I 154 W/m 10,5 C 8,3 C 38,6 km/h (5 Bft)
24.10.2022 14:27 14,2 C 13,9 C 79 % 1011,4 hPa 0,0 l/m 18,8 km/h (3 Bft) S 180 0 min 0,9 UV-I 133 W/m 10,6 C 9,0 C 30,6 km/h (5 Bft)
24.10.2022 14:30 14,1 C 13,9 C 79 % 1011,4 hPa 0,0 l/m 19,2 km/h (3 Bft) S-SW 198 0 min 0,4 UV-I 79 W/m 10,5 C 8,8 C 33,8 km/h (5 Bft)
24.10.2022 14:33 14,1 C 13,9 C 78 % 1011,5 hPa 0,0 l/m 24,0 km/h (4 Bft) S 184 0 min 0,6 UV-I 114 W/m 10,3 C 7,6 C 37,0 km/h (5 Bft)
24.10.2022 14:36 14,1 C 13,9 C 78 % 1011,3 hPa 0,0 l/m 25,7 km/h (4 Bft) SW 225 0 min 0,8 UV-I 141 W/m 10,3 C 7,2 C 48,3 km/h (6 Bft)
24.10.2022 14:39 14,1 C 13,9 C 78 % 1011,5 hPa 0,0 l/m 24,7 km/h (4 Bft) S 188 0 min 0,9 UV-I 159 W/m 10,3 C 7,5 C 41,8 km/h (6 Bft)
24.10.2022 14:42 14,0 C 14,4 C 79 % 1011,5 hPa 0,0 l/m 27,4 km/h (4 Bft) S-SW 196 0 min 1,1 UV-I 179 W/m 10,4 C 6,8 C 45,1 km/h (6 Bft)
24.10.2022 14:45 13,9 C 14,4 C 79 % 1011,4 hPa 0,0 l/m 27,2 km/h (4 Bft) SW 223 0 min 1,2 UV-I 169 W/m 10,3 C 6,7 C 41,8 km/h (6 Bft)
24.10.2022 14:48 13,9 C 14,4 C 79 % 1011,4 hPa 0,0 l/m 28,7 km/h (4 Bft) S-SW 213 0 min 1,2 UV-I 163 W/m 10,3 C 6,4 C 40,2 km/h (6 Bft)
24.10.2022 14:51 13,9 C 14,4 C 80 % 1011,4 hPa 0,0 l/m 19,1 km/h (3 Bft) S 175 0 min 1,1 UV-I 146 W/m 10,5 C 8,6 C 29,0 km/h (5 Bft)
24.10.2022 14:54 13,8 C 13,9 C 80 % 1011,4 hPa 0,0 l/m 22,6 km/h (4 Bft) S-SW 194 0 min 1,0 UV-I 109 W/m 10,4 C 7,5 C 32,2 km/h (5 Bft)
24.10.2022 14:57 13,8 C 14,4 C 80 % 1011,3 hPa 0,0 l/m 19,6 km/h (3 Bft) S-SW 203 0 min 1,1 UV-I 178 W/m 10,4 C 8,3 C 35,4 km/h (5 Bft)
24.10.2022 15:00 13,9 C 14,4 C 80 % 1011,4 hPa 0,0 l/m 22,7 km/h (4 Bft) S-SW 209 0 min 1,1 UV-I 150 W/m 10,5 C 7,6 C 32,2 km/h (5 Bft)
24.10.2022 15:03 13,9 C 14,4 C 80 % 1011,2 hPa 0,0 l/m 21,1 km/h (4 Bft) S-SW 200 0 min 1,0 UV-I 163 W/m 10,5 C 8,0 C 30,6 km/h (5 Bft)
24.10.2022 15:06 13,9 C 14,4 C 80 % 1011,3 hPa 0,0 l/m 23,8 km/h (4 Bft) S-SW 211 0 min 1,0 UV-I 166 W/m 10,5 C 7,4 C 40,2 km/h (6 Bft)
24.10.2022 15:09 14,0 C 14,4 C 80 % 1011,2 hPa 0,0 l/m 19,8 km/h (3 Bft) S 170 0 min 0,8 UV-I 160 W/m 10,6 C 8,5 C 33,8 km/h (5 Bft)
24.10.2022 15:12 14,1 C 13,9 C 79 % 1011,1 hPa 0,0 l/m 28,0 km/h (4 Bft) S-SO 165 0 min 0,7 UV-I 118 W/m 10,5 C 6,8 C 43,5 km/h (6 Bft)
24.10.2022 15:15 14,0 C 13,9 C 80 % 1011,1 hPa 0,0 l/m 20,7 km/h (4 Bft) SW 218 0 min 0,5 UV-I 91 W/m 10,6 C 8,3 C 41,8 km/h (6 Bft)
24.10.2022 15:18 13,9 C 13,3 C 79 % 1011,1 hPa 0,0 l/m 26,1 km/h (4 Bft) S 178 0 min 0,5 UV-I 85 W/m 10,3 C 6,9 C 45,1 km/h (6 Bft)
24.10.2022 15:21 13,8 C 12,8 C 80 % 1011,1 hPa 0,0 l/m 21,2 km/h (4 Bft) SW 220 0 min 0,1 UV-I 53 W/m 10,4 C 7,9 C 30,6 km/h (5 Bft)
24.10.2022 15:24 13,8 C 12,8 C 81 % 1011,0 hPa 0,0 l/m 16,7 km/h (3 Bft) S 182 0 min 0,3 UV-I 96 W/m 10,6 C 9,2 C 25,7 km/h (4 Bft)
24.10.2022 15:27 13,7 C 12,8 C 82 % 1011,2 hPa 0,0 l/m 14,2 km/h (3 Bft) S-SW 200 0 min 0,3 UV-I 93 W/m 10,7 C 9,9 C 20,9 km/h (4 Bft)
24.10.2022 15:30 13,6 C 12,2 C 82 % 1011,3 hPa 0,0 l/m 23,4 km/h (4 Bft) S 188 0 min 0,0 UV-I 49 W/m 10,6 C 7,1 C 37,0 km/h (5 Bft)
24.10.2022 15:33 13,6 C 12,2 C 82 % 1011,2 hPa 0,0 l/m 22,1 km/h (4 Bft) S-SW 210 0 min 0,0 UV-I 65 W/m 10,6 C 7,4 C 32,2 km/h (5 Bft)
24.10.2022 15:36 13,5 C 12,2 C 82 % 1011,3 hPa 0,0 l/m 20,1 km/h (4 Bft) S 188 0 min 0,3 UV-I 68 W/m 10,5 C 7,8 C 33,8 km/h (5 Bft)
24.10.2022 15:39 13,4 C 12,2 C 83 % 1011,1 hPa 0,0 l/m 17,4 km/h (3 Bft) S 181 0 min 0,3 UV-I 81 W/m 10,6 C 8,4 C 25,7 km/h (4 Bft)
24.10.2022 15:42 13,4 C 12,8 C 83 % 1011,1 hPa 0,0 l/m 19,2 km/h (3 Bft) S-SW 212 0 min 0,6 UV-I 83 W/m 10,6 C 7,9 C 30,6 km/h (5 Bft)
24.10.2022 15:45 13,4 C 12,8 C 83 % 1011,2 hPa 0,0 l/m 19,3 km/h (3 Bft) S 181 0 min 0,4 UV-I 65 W/m 10,6 C 7,9 C 30,6 km/h (5 Bft)
24.10.2022 15:48 13,4 C 12,8 C 83 % 1011,2 hPa 0,0 l/m 19,1 km/h (3 Bft) S 184 0 min 0,0 UV-I 61 W/m 10,6 C 7,9 C 29,0 km/h (5 Bft)
24.10.2022 15:51 13,6 C 13,3 C 82 % 1011,4 hPa 0,0 l/m 21,5 km/h (4 Bft) SW 215 0 min 0,0 UV-I 80 W/m 10,6 C 7,5 C 33,8 km/h (5 Bft)
24.10.2022 15:54 13,7 C 13,3 C 82 % 1011,2 hPa 0,0 l/m 20,6 km/h (4 Bft) S 190 0 min 0,3 UV-I 78 W/m 10,7 C 7,9 C 32,2 km/h (5 Bft)
24.10.2022 15:57 13,8 C 13,9 C 81 % 1011,2 hPa 0,0 l/m 24,9 km/h (4 Bft) S-SW 199 0 min 0,6 UV-I 125 W/m 10,6 C 7,0 C 35,4 km/h (5 Bft)
24.10.2022 16:00 13,9 C 13,9 C 80 % 1011,3 hPa 0,0 l/m 22,3 km/h (4 Bft) S-SW 211 0 min 0,8 UV-I 168 W/m 10,5 C 7,7 C 37,0 km/h (5 Bft)
24.10.2022 16:03 14,1 C 14,4 C 80 % 1011,2 hPa 0,0 l/m 20,6 km/h (4 Bft) S-SW 196 0 min 0,8 UV-I 164 W/m 10,7 C 8,4 C 37,0 km/h (5 Bft)
24.10.2022 16:06 14,1 C 14,4 C 80 % 1011,3 hPa 0,0 l/m 18,8 km/h (3 Bft) S-SO 163 0 min 0,8 UV-I 142 W/m 10,7 C 8,9 C 29,0 km/h (5 Bft)
24.10.2022 16:09 14,1 C 13,9 C 80 % 1011,4 hPa 0,0 l/m 18,9 km/h (3 Bft) S 179 0 min 0,6 UV-I 99 W/m 10,7 C 8,9 C 32,2 km/h (5 Bft)
24.10.2022 16:12 14,1 C 13,9 C 79 % 1011,4 hPa 0,0 l/m 18,5 km/h (3 Bft) S 190 0 min 0,0 UV-I 73 W/m 10,5 C 9,0 C 29,0 km/h (5 Bft)
24.10.2022 16:15 14,1 C 13,3 C 79 % 1011,5 hPa 0,0 l/m 21,5 km/h (4 Bft) S-SW 211 0 min 0,0 UV-I 51 W/m 10,5 C 8,2 C 32,2 km/h (5 Bft)
24.10.2022 16:18 14,0 C 13,3 C 79 % 1011,5 hPa 0,0 l/m 19,2 km/h (3 Bft) S-SW 194 0 min 0,0 UV-I 40 W/m 10,4 C 8,7 C 27,4 km/h (4 Bft)
24.10.2022 16:21 13,9 C 13,3 C 80 % 1011,4 hPa 0,0 l/m 14,9 km/h (3 Bft) S-SW 203 0 min 0,0 UV-I 49 W/m 10,5 C 9,9 C 25,7 km/h (4 Bft)
24.10.2022 16:24 13,9 C 13,3 C 80 % 1011,4 hPa 0,0 l/m 17,3 km/h (3 Bft) S-SW 203 0 min 0,0 UV-I 53 W/m 10,5 C 9,1 C 27,4 km/h (4 Bft)
24.10.2022 16:27 13,9 C 13,3 C 80 % 1011,4 hPa 0,0 l/m 17,0 km/h (3 Bft) S-SO 159 0 min 0,0 UV-I 54 W/m 10,5 C 9,2 C 30,6 km/h (5 Bft)
24.10.2022 16:30 13,9 C 13,9 C 79 % 1011,4 hPa 0,0 l/m 15,1 km/h (3 Bft) S 186 0 min 0,0 UV-I 74 W/m 10,3 C 9,8 C 30,6 km/h (5 Bft)
24.10.2022 16:33 14,0 C 13,9 C 79 % 1011,4 hPa 0,0 l/m 17,6 km/h (3 Bft) S 188 0 min 0,4 UV-I 98 W/m 10,4 C 9,1 C 29,0 km/h (5 Bft)
24.10.2022 16:36 14,1 C 13,9 C 78 % 1011,5 hPa 0,0 l/m 20,5 km/h (4 Bft) S 173 0 min 0,0 UV-I 87 W/m 10,3 C 8,5 C 35,4 km/h (5 Bft)
24.10.2022 16:39 14,1 C 13,9 C 79 % 1011,5 hPa 0,0 l/m 19,8 km/h (3 Bft) S 190 0 min 0,4 UV-I 113 W/m 10,5 C 8,6 C 30,6 km/h (5 Bft)
24.10.2022 16:42 14,1 C 13,9 C 79 % 1011,6 hPa 0,0 l/m 21,6 km/h (4 Bft) S-SW 200 0 min 0,2 UV-I 77 W/m 10,5 C 8,2 C 32,2 km/h (5 Bft)
24.10.2022 16:45 14,1 C 13,9 C 79 % 1011,5 hPa 0,0 l/m 23,6 km/h (4 Bft) S 183 0 min 0,0 UV-I 69 W/m 10,5 C 7,7 C 37,0 km/h (5 Bft)
24.10.2022 16:48 14,1 C 13,3 C 79 % 1011,6 hPa 0,0 l/m 20,2 km/h (4 Bft) S 171 0 min 0,0 UV-I 63 W/m 10,5 C 8,5 C 30,6 km/h (5 Bft)
24.10.2022 16:51 14,1 C 13,9 C 79 % 1011,6 hPa 0,0 l/m 12,3 km/h (3 Bft) S-SW 204 0 min 0,0 UV-I 81 W/m 10,5 C 11,1 C 20,9 km/h (4 Bft)
24.10.2022 16:54 14,1 C 13,9 C 80 % 1011,6 hPa 0,0 l/m 17,2 km/h (3 Bft) S 171 0 min 0,0 UV-I 86 W/m 10,7 C 9,4 C 29,0 km/h (5 Bft)
24.10.2022 16:57 14,1 C 13,9 C 80 % 1011,6 hPa 0,0 l/m 15,8 km/h (3 Bft) S-SO 150 0 min 0,0 UV-I 76 W/m 10,7 C 9,8 C 29,0 km/h (5 Bft)
24.10.2022 17:00 14,1 C 13,9 C 80 % 1011,6 hPa 0,0 l/m 16,3 km/h (3 Bft) S 182 0 min 0,0 UV-I 65 W/m 10,7 C 9,7 C 32,2 km/h (5 Bft)
24.10.2022 17:03 14,0 C 13,9 C 80 % 1011,6 hPa 0,0 l/m 16,9 km/h (3 Bft) S-SW 194 0 min 0,0 UV-I 68 W/m 10,6 C 9,4 C 27,4 km/h (4 Bft)
24.10.2022 17:06 13,9 C 13,9 C 80 % 1011,7 hPa 0,0 l/m 22,1 km/h (4 Bft) S-SW 201 0 min 0,0 UV-I 71 W/m 10,5 C 7,8 C 37,0 km/h (5 Bft)
24.10.2022 17:09 13,9 C 13,3 C 81 % 1011,7 hPa 0,0 l/m 17,5 km/h (3 Bft) S-SW 194 0 min 0,0 UV-I 91 W/m 10,7 C 9,0 C 29,0 km/h (5 Bft)
24.10.2022 17:12 13,9 C 13,3 C 81 % 1011,7 hPa 0,0 l/m 18,1 km/h (3 Bft) S-SO 166 0 min 0,0 UV-I 96 W/m 10,7 C 8,9 C 27,4 km/h (4 Bft)
24.10.2022 17:15 13,8 C 13,3 C 82 % 1011,7 hPa 0,0 l/m 15,3 km/h (3 Bft) S 171 0 min 0,0 UV-I 80 W/m 10,8 C 9,6 C 25,7 km/h (4 Bft)
24.10.2022 17:18 13,8 C 13,3 C 82 % 1011,8 hPa 0,0 l/m 18,7 km/h (3 Bft) S 186 0 min 0,0 UV-I 54 W/m 10,8 C 8,6 C 40,2 km/h (6 Bft)
24.10.2022 17:21 13,7 C 13,3 C 82 % 1011,8 hPa 0,0 l/m 17,6 km/h (3 Bft) S 175 0 min 0,0 UV-I 41 W/m 10,7 C 8,8 C 27,4 km/h (4 Bft)
24.10.2022 17:24 13,7 C 13,3 C 82 % 1011,8 hPa 0,0 l/m 21,1 km/h (4 Bft) S-SO 167 0 min 0,0 UV-I 41 W/m 10,7 C 7,8 C 32,2 km/h (5 Bft)
24.10.2022 17:27 13,7 C 12,8 C 82 % 1011,8 hPa 0,0 l/m 17,8 km/h (3 Bft) S-SW 199 0 min 0,0 UV-I 58 W/m 10,7 C 8,7 C 32,2 km/h (5 Bft)
24.10.2022 17:30 13,6 C 12,8 C 83 % 1011,7 hPa 0,0 l/m 16,6 km/h (3 Bft) S-SW 213 0 min 0,0 UV-I 73 W/m 10,8 C 9,0 C 27,4 km/h (4 Bft)
24.10.2022 17:33 13,6 C 12,2 C 83 % 1011,6 hPa 0,0 l/m 18,3 km/h (3 Bft) S-SW 204 0 min 0,0 UV-I 56 W/m 10,8 C 8,4 C 33,8 km/h (5 Bft)
24.10.2022 17:36 13,6 C 12,2 C 83 % 1011,8 hPa 0,0 l/m 17,6 km/h (3 Bft) S-SW 212 0 min 0,0 UV-I 28 W/m 10,8 C 8,6 C 29,0 km/h (5 Bft)
24.10.2022 17:39 13,5 C 12,8 C 83 % 1011,8 hPa 0,0 l/m 14,9 km/h (3 Bft) S-SW 194 0 min 0,0 UV-I 14 W/m 10,7 C 9,4 C 29,0 km/h (5 Bft)
24.10.2022 17:42 13,5 C 12,8 C 83 % 1011,9 hPa 0,0 l/m 15,6 km/h (3 Bft) S 169 0 min 0,0 UV-I 18 W/m 10,7 C 9,2 C 30,6 km/h (5 Bft)
24.10.2022 17:45 13,4 C 12,8 C 83 % 1011,8 hPa 0,0 l/m 17,3 km/h (3 Bft) S 178 0 min 0,0 UV-I 14 W/m 10,6 C 8,5 C 25,7 km/h (4 Bft)
24.10.2022 17:48 13,4 C 12,8 C 83 % 1011,9 hPa 0,0 l/m 17,8 km/h (3 Bft) SW 219 0 min 0,0 UV-I 11 W/m 10,6 C 8,3 C 30,6 km/h (5 Bft)
24.10.2022 17:51 13,4 C 12,8 C 83 % 1012,0 hPa 0,0 l/m 16,4 km/h (3 Bft) S-SW 196 0 min 0,0 UV-I 12 W/m 10,6 C 8,8 C 35,4 km/h (5 Bft)
24.10.2022 17:54 13,3 C 12,8 C 84 % 1011,9 hPa 0,0 l/m 13,5 km/h (3 Bft) S-SW 198 0 min 0,0 UV-I 11 W/m 10,7 C 9,7 C 22,5 km/h (4 Bft)
24.10.2022 17:57 13,3 C 12,8 C 84 % 1011,8 hPa 0,0 l/m 13,2 km/h (3 Bft) S 183 0 min 0,0 UV-I 14 W/m 10,7 C 9,8 C 20,9 km/h (4 Bft)
24.10.2022 18:00 13,3 C 12,8 C 84 % 1011,9 hPa 0,0 l/m 15,5 km/h (3 Bft) S-SW 200 0 min 0,0 UV-I 12 W/m 10,7 C 9,0 C 24,1 km/h (4 Bft)
24.10.2022 18:03 13,3 C 12,8 C 84 % 1011,8 hPa 0,0 l/m 16,0 km/h (3 Bft) S 182 0 min 0,0 UV-I 8 W/m 10,7 C 8,8 C 32,2 km/h (5 Bft)
24.10.2022 18:06 13,3 C 12,8 C 84 % 1011,8 hPa 0,0 l/m 14,8 km/h (3 Bft) S 173 0 min 0,0 UV-I 7 W/m 10,7 C 9,2 C 24,1 km/h (4 Bft)
24.10.2022 18:09 13,3 C 12,8 C 84 % 1011,9 hPa 0,0 l/m 14,3 km/h (3 Bft) S-SW 200 0 min 0,0 UV-I 7 W/m 10,7 C 9,4 C 24,1 km/h (4 Bft)
24.10.2022 18:12 13,4 C 12,8 C 84 % 1011,9 hPa 0,0 l/m 17,9 km/h (3 Bft) SW 215 0 min 0,0 UV-I 5 W/m 10,8 C 8,3 C 32,2 km/h (5 Bft)
24.10.2022 18:15 13,4 C 12,8 C 84 % 1011,9 hPa 0,0 l/m 18,8 km/h (3 Bft) S-SO 165 0 min 0,0 UV-I 2 W/m 10,8 C 8,0 C 37,0 km/h (5 Bft)
24.10.2022 18:18 13,4 C 12,8 C 83 % 1012,1 hPa 0,0 l/m 13,0 km/h (3 Bft) S-SW 204 0 min 0,0 UV-I 0 W/m 10,6 C 10,0 C 20,9 km/h (4 Bft)
24.10.2022 18:21 13,4 C 12,8 C 84 % 1012,2 hPa 0,0 l/m 13,4 km/h (3 Bft) S 189 0 min 0,0 UV-I 0 W/m 10,8 C 9,9 C 25,7 km/h (4 Bft)
24.10.2022 18:24 13,4 C 12,8 C 84 % 1012,0 hPa 0,0 l/m 16,5 km/h (3 Bft) S-SW 200 0 min 0,0 UV-I 0 W/m 10,8 C 8,7 C 25,7 km/h (4 Bft)
24.10.2022 18:27 13,4 C 12,8 C 84 % 1012,1 hPa 0,0 l/m 14,7 km/h (3 Bft) S-SO 168 0 min 0,0 UV-I 0 W/m 10,8 C 9,4 C 25,7 km/h (4 Bft)
24.10.2022 18:30 13,4 C 12,8 C 84 % 1012,1 hPa 0,0 l/m 11,2 km/h (2 Bft) S-SW 192 0 min 0,0 UV-I 0 W/m 10,8 C 10,8 C 22,5 km/h (4 Bft)
24.10.2022 18:33 13,3 C 12,8 C 84 % 1012,2 hPa 0,0 l/m 15,4 km/h (3 Bft) S 182 0 min 0,0 UV-I 0 W/m 10,7 C 9,0 C 33,8 km/h (5 Bft)
24.10.2022 18:36 13,3 C 12,2 C 84 % 1012,2 hPa 0,0 l/m 11,8 km/h (2 Bft) SW 214 0 min 0,0 UV-I 0 W/m 10,7 C 10,4 C 19,3 km/h (3 Bft)
24.10.2022 18:39 13,2 C 12,2 C 84 % 1012,3 hPa 0,0 l/m 11,6 km/h (2 Bft) S 190 0 min 0,0 UV-I 0 W/m 10,6 C 10,4 C 20,9 km/h (4 Bft)
24.10.2022 18:42 13,1 C 12,2 C 85 % 1012,3 hPa 0,0 l/m 11,5 km/h (2 Bft) S 182 0 min 0,0 UV-I 0 W/m 10,6 C 10,3 C 16,1 km/h (3 Bft)
24.10.2022 18:45 13,0 C 12,2 C 85 % 1012,4 hPa 0,0 l/m 12,7 km/h (3 Bft) S-SW 196 0 min 0,0 UV-I 0 W/m 10,5 C 9,7 C 20,9 km/h (4 Bft)
24.10.2022 18:48 13,0 C 12,2 C 85 % 1012,3 hPa 0,0 l/m 11,4 km/h (2 Bft) S 179 0 min 0,0 UV-I 0 W/m 10,5 C 10,2 C 20,9 km/h (4 Bft)
24.10.2022 18:51 13,1 C 12,2 C 85 % 1012,4 hPa 0,0 l/m 14,3 km/h (3 Bft) S-SO 165 0 min 0,0 UV-I 0 W/m 10,6 C 9,1 C 25,7 km/h (4 Bft)
24.10.2022 18:54 13,0 C 12,2 C 85 % 1012,5 hPa 0,0 l/m 14,3 km/h (3 Bft) S 188 0 min 0,0 UV-I 0 W/m 10,5 C 9,0 C 22,5 km/h (4 Bft)
24.10.2022 18:57 13,1 C 12,2 C 85 % 1012,4 hPa 0,0 l/m 14,9 km/h (3 Bft) S-SO 161 0 min 0,0 UV-I 0 W/m 10,6 C 8,9 C 25,7 km/h (4 Bft)
24.10.2022 19:00 13,1 C 12,2 C 85 % 1012,4 hPa 0,0 l/m 10,9 km/h (2 Bft) S 181 0 min 0,0 UV-I 0 W/m 10,6 C 10,6 C 17,7 km/h (3 Bft)
24.10.2022 19:03 13,0 C 12,2 C 85 % 1012,5 hPa 0,0 l/m 10,8 km/h (2 Bft) SW 235 0 min 0,0 UV-I 0 W/m 10,5 C 10,5 C 17,7 km/h (3 Bft)
24.10.2022 19:06 13,0 C 12,2 C 85 % 1012,6 hPa 0,0 l/m 12,8 km/h (3 Bft) S-SW 213 0 min 0,0 UV-I 0 W/m 10,5 C 9,6 C 22,5 km/h (4 Bft)
24.10.2022 19:09 13,0 C 12,2 C 85 % 1012,5 hPa 0,0 l/m 12,7 km/h (3 Bft) S 175 0 min 0,0 UV-I 0 W/m 10,5 C 9,7 C 24,1 km/h (4 Bft)
24.10.2022 19:12 13,1 C 12,2 C 85 % 1012,5 hPa 0,0 l/m 14,4 km/h (3 Bft) S 180 0 min 0,0 UV-I 0 W/m 10,6 C 9,1 C 30,6 km/h (5 Bft)
24.10.2022 19:15 13,0 C 12,2 C 85 % 1012,6 hPa 0,0 l/m 11,5 km/h (2 Bft) S-SO 163 0 min 0,0 UV-I 0 W/m 10,5 C 10,2 C 19,3 km/h (3 Bft)
24.10.2022 19:18 13,0 C 12,2 C 85 % 1012,5 hPa 0,0 l/m 10,0 km/h (2 Bft) S 188 0 min 0,0 UV-I 0 W/m 10,5 C 10,9 C 20,9 km/h (4 Bft)
24.10.2022 19:21 12,9 C 12,2 C 85 % 1012,5 hPa 0,0 l/m 10,5 km/h (2 Bft) S 188 0 min 0,0 UV-I 0 W/m 10,4 C 10,5 C 16,1 km/h (3 Bft)
24.10.2022 19:24 12,9 C 12,2 C 85 % 1012,6 hPa 0,0 l/m 11,0 km/h (2 Bft) S-SW 198 0 min 0,0 UV-I 0 W/m 10,4 C 10,3 C 17,7 km/h (3 Bft)
24.10.2022 19:27 12,9 C 12,2 C 85 % 1012,7 hPa 0,0 l/m 12,2 km/h (2 Bft) S 176 0 min 0,0 UV-I 0 W/m 10,4 C 9,8 C 17,7 km/h (3 Bft)
24.10.2022 19:30 13,1 C 12,2 C 85 % 1012,7 hPa 0,0 l/m 17,1 km/h (3 Bft) S 188 0 min 0,0 UV-I 0 W/m 10,6 C 8,2 C 27,4 km/h (4 Bft)
24.10.2022 19:33 13,1 C 12,2 C 85 % 1012,7 hPa 0,0 l/m 14,1 km/h (3 Bft) S 184 0 min 0,0 UV-I 0 W/m 10,6 C 9,2 C 22,5 km/h (4 Bft)
24.10.2022 19:36 13,1 C 12,2 C 85 % 1012,7 hPa 0,0 l/m 15,4 km/h (3 Bft) S-SW 197 0 min 0,0 UV-I 0 W/m 10,6 C 8,7 C 25,7 km/h (4 Bft)
24.10.2022 19:39 13,1 C 12,2 C 85 % 1012,8 hPa 0,0 l/m 15,1 km/h (3 Bft) S-SO 151 0 min 0,0 UV-I 0 W/m 10,6 C 8,9 C 22,5 km/h (4 Bft)
24.10.2022 19:42 13,1 C 12,2 C 86 % 1012,7 hPa 0,0 l/m 13,7 km/h (3 Bft) S 170 0 min 0,0 UV-I 0 W/m 10,8 C 9,4 C 25,7 km/h (4 Bft)
24.10.2022 19:45 13,0 C 12,2 C 86 % 1012,7 hPa 0,0 l/m 15,7 km/h (3 Bft) S 187 0 min 0,0 UV-I 0 W/m 10,7 C 8,5 C 32,2 km/h (5 Bft)
24.10.2022 19:48 12,9 C 12,2 C 86 % 1012,6 hPa 0,0 l/m 15,4 km/h (3 Bft) S 178 0 min 0,0 UV-I 0 W/m 10,6 C 8,5 C 24,1 km/h (4 Bft)
24.10.2022 19:51 12,9 C 12,2 C 86 % 1012,8 hPa 0,0 l/m 15,1 km/h (3 Bft) S 178 0 min 0,0 UV-I 0 W/m 10,6 C 8,6 C 24,1 km/h (4 Bft)
24.10.2022 19:54 12,8 C 11,7 C 86 % 1012,7 hPa 0,0 l/m 16,7 km/h (3 Bft) S 169 0 min 0,0 UV-I 0 W/m 10,5 C 7,9 C 29,0 km/h (5 Bft)
24.10.2022 19:57 12,8 C 12,2 C 86 % 1012,8 hPa 0,0 l/m 13,9 km/h (3 Bft) S 179 0 min 0,0 UV-I 0 W/m 10,5 C 8,9 C 27,4 km/h (4 Bft)
24.10.2022 20:00 12,8 C 11,7 C 86 % 1012,8 hPa 0,0 l/m 15,1 km/h (3 Bft) S 175 0 min 0,0 UV-I 0 W/m 10,5 C 8,5 C 22,5 km/h (4 Bft)
24.10.2022 20:03 12,7 C 11,7 C 86 % 1012,6 hPa 0,0 l/m 14,1 km/h (3 Bft) S 169 0 min 0,0 UV-I 0 W/m 10,4 C 8,7 C 24,1 km/h (4 Bft)
24.10.2022 20:06 12,7 C 11,7 C 86 % 1012,7 hPa 0,0 l/m 14,0 km/h (3 Bft) S 186 0 min 0,0 UV-I 0 W/m 10,4 C 8,8 C 20,9 km/h (4 Bft)
24.10.2022 20:09 12,7 C 11,7 C 86 % 1012,8 hPa 0,0 l/m 16,9 km/h (3 Bft) S 186 0 min 0,0 UV-I 0 W/m 10,4 C 7,7 C 30,6 km/h (5 Bft)
24.10.2022 20:12 12,7 C 11,7 C 85 % 1012,8 hPa 0,0 l/m 13,7 km/h (3 Bft) S-SO 151 0 min 0,0 UV-I 0 W/m 10,2 C 8,9 C 20,9 km/h (4 Bft)
24.10.2022 20:15 12,7 C 11,7 C 85 % 1012,7 hPa 0,0 l/m 14,6 km/h (3 Bft) S-SW 196 0 min 0,0 UV-I 0 W/m 10,2 C 8,6 C 29,0 km/h (5 Bft)
24.10.2022 20:18 12,7 C 11,7 C 85 % 1013,0 hPa 0,0 l/m 18,3 km/h (3 Bft) S-SW 205 0 min 0,0 UV-I 0 W/m 10,2 C 7,3 C 27,4 km/h (4 Bft)
24.10.2022 20:21 12,8 C 11,7 C 85 % 1013,0 hPa 0,0 l/m 16,7 km/h (3 Bft) S-SW 194 0 min 0,0 UV-I 0 W/m 10,3 C 7,9 C 27,4 km/h (4 Bft)
24.10.2022 20:24 12,8 C 12,2 C 85 % 1013,0 hPa 0,0 l/m 14,2 km/h (3 Bft) S-SW 204 0 min 0,0 UV-I 0 W/m 10,3 C 8,8 C 19,3 km/h (3 Bft)
24.10.2022 20:27 12,8 C 12,2 C 86 % 1013,0 hPa 0,0 l/m 16,1 km/h (3 Bft) S 185 0 min 0,0 UV-I 0 W/m 10,5 C 8,1 C 25,7 km/h (4 Bft)
24.10.2022 20:30 12,8 C 12,2 C 86 % 1013,1 hPa 0,0 l/m 14,1 km/h (3 Bft) S 176 0 min 0,0 UV-I 0 W/m 10,5 C 8,9 C 25,7 km/h (4 Bft)
24.10.2022 20:33 12,9 C 12,2 C 86 % 1013,0 hPa 0,0 l/m 16,1 km/h (3 Bft) S 186 0 min 0,0 UV-I 0 W/m 10,6 C 8,3 C 35,4 km/h (5 Bft)
24.10.2022 20:36 12,9 C 12,2 C 86 % 1013,1 hPa 0,0 l/m 20,2 km/h (4 Bft) S 175 0 min 0,0 UV-I 0 W/m 10,6 C 7,0 C 40,2 km/h (6 Bft)
24.10.2022 20:39 12,9 C 12,2 C 86 % 1013,2 hPa 0,0 l/m 19,2 km/h (3 Bft) S 189 0 min 0,0 UV-I 0 W/m 10,6 C 7,3 C 30,6 km/h (5 Bft)
24.10.2022 20:42 12,9 C 11,7 C 85 % 1013,2 hPa 0,0 l/m 20,3 km/h (4 Bft) S 186 0 min 0,0 UV-I 0 W/m 10,4 C 6,9 C 29,0 km/h (5 Bft)
24.10.2022 20:45 12,9 C 12,2 C 85 % 1013,1 hPa 0,0 l/m 23,4 km/h (4 Bft) S-SW 194 0 min 0,0 UV-I 0 W/m 10,4 C 6,1 C 40,2 km/h (6 Bft)
24.10.2022 20:48 12,9 C 11,7 C 85 % 1013,2 hPa 0,0 l/m 18,5 km/h (3 Bft) SW 216 0 min 0,0 UV-I 0 W/m 10,4 C 7,5 C 25,7 km/h (4 Bft)
24.10.2022 20:51 12,9 C 11,7 C 85 % 1013,2 hPa 0,0 l/m 16,9 km/h (3 Bft) S 185 0 min 0,0 UV-I 0 W/m 10,4 C 8,0 C 25,7 km/h (4 Bft)
24.10.2022 20:54 12,8 C 11,7 C 85 % 1013,3 hPa 0,0 l/m 16,3 km/h (3 Bft) S 180 0 min 0,0 UV-I 0 W/m 10,3 C 8,1 C 30,6 km/h (5 Bft)
24.10.2022 20:57 12,8 C 11,7 C 85 % 1013,2 hPa 0,0 l/m 16,2 km/h (3 Bft) S-SW 205 0 min 0,0 UV-I 0 W/m 10,3 C 8,1 C 27,4 km/h (4 Bft)
24.10.2022 21:00 12,9 C 12,2 C 85 % 1013,2 hPa 0,0 l/m 20,8 km/h (4 Bft) S 182 0 min 0,0 UV-I 0 W/m 10,4 C 6,8 C 32,2 km/h (5 Bft)
24.10.2022 21:03 12,9 C 12,2 C 85 % 1013,2 hPa 0,0 l/m 18,1 km/h (3 Bft) S 178 0 min 0,0 UV-I 0 W/m 10,4 C 7,6 C 29,0 km/h (5 Bft)
24.10.2022 21:09 12,9 C 12,2 C 86 % 1013,2 hPa 0,0 l/m 20,5 km/h (4 Bft) S 172 0 min 0,0 UV-I 0 W/m 10,6 C 6,9 C 38,6 km/h (5 Bft)
24.10.2022 21:12 12,9 C 12,2 C 86 % 1013,1 hPa 0,0 l/m 20,2 km/h (4 Bft) S-SW 198 0 min 0,0 UV-I 0 W/m 10,6 C 7,0 C 33,8 km/h (5 Bft)
24.10.2022 21:15 12,9 C 12,2 C 86 % 1013,2 hPa 0,0 l/m 19,9 km/h (4 Bft) S 186 0 min 0,0 UV-I 0 W/m 10,6 C 7,1 C 38,6 km/h (5 Bft)
24.10.2022 21:18 13,0 C 12,2 C 86 % 1013,3 hPa 0,0 l/m 22,2 km/h (4 Bft) S-SW 202 0 min 0,0 UV-I 0 W/m 10,7 C 6,6 C 38,6 km/h (5 Bft)
24.10.2022 21:21 12,9 C 12,2 C 86 % 1013,3 hPa 0,0 l/m 21,0 km/h (4 Bft) S-SO 165 0 min 0,0 UV-I 0 W/m 10,6 C 6,8 C 35,4 km/h (5 Bft)
24.10.2022 21:24 12,9 C 12,2 C 86 % 1013,2 hPa 0,0 l/m 19,9 km/h (4 Bft) SW 214 0 min 0,0 UV-I 0 W/m 10,6 C 7,1 C 30,6 km/h (5 Bft)
24.10.2022 21:27 12,9 C 12,2 C 86 % 1013,1 hPa 0,0 l/m 21,0 km/h (4 Bft) S-SW 195 0 min 0,0 UV-I 0 W/m 10,6 C 6,8 C 35,4 km/h (5 Bft)
24.10.2022 21:30 12,9 C 12,2 C 86 % 1013,1 hPa 0,0 l/m 22,5 km/h (4 Bft) S-SW 196 0 min 0,0 UV-I 0 W/m 10,6 C 6,4 C 40,2 km/h (6 Bft)
24.10.2022 21:33 12,9 C 12,2 C 86 % 1013,3 hPa 0,0 l/m 20,0 km/h (4 Bft) S-SO 167 0 min 0,0 UV-I 0 W/m 10,6 C 7,0 C 38,6 km/h (5 Bft)
24.10.2022 21:36 12,9 C 12,2 C 86 % 1013,1 hPa 0,0 l/m 23,6 km/h (4 Bft) SW 215 0 min 0,0 UV-I 0 W/m 10,6 C 6,1 C 37,0 km/h (5 Bft)
24.10.2022 21:39 12,8 C 11,7 C 86 % 1013,2 hPa 0,0 l/m 20,1 km/h (4 Bft) W-SW 239 0 min 0,0 UV-I 0 W/m 10,5 C 6,9 C 29,0 km/h (5 Bft)
24.10.2022 21:42 12,8 C 11,7 C 86 % 1013,1 hPa 0,0 l/m 17,6 km/h (3 Bft) S-SW 192 0 min 0,0 UV-I 0 W/m 10,5 C 7,6 C 30,6 km/h (5 Bft)
24.10.2022 21:45 12,8 C 11,7 C 86 % 1013,1 hPa 0,0 l/m 20,0 km/h (4 Bft) S-SW 196 0 min 0,0 UV-I 0 W/m 10,5 C 6,9 C 29,0 km/h (5 Bft)
24.10.2022 21:48 12,7 C 11,7 C 86 % 1013,1 hPa 0,0 l/m 21,3 km/h (4 Bft) S-SW 200 0 min 0,0 UV-I 0 W/m 10,4 C 6,4 C 32,2 km/h (5 Bft)
24.10.2022 21:51 12,7 C 11,7 C 86 % 1013,1 hPa 0,0 l/m 21,2 km/h (4 Bft) S-SO 155 0 min 0,0 UV-I 0 W/m 10,4 C 6,4 C 35,4 km/h (5 Bft)
24.10.2022 21:54 12,7 C 11,7 C 86 % 1013,3 hPa 0,0 l/m 17,6 km/h (3 Bft) S-SW 209 0 min 0,0 UV-I 0 W/m 10,4 C 7,5 C 29,0 km/h (5 Bft)
24.10.2022 21:57 12,7 C 11,7 C 87 % 1013,2 hPa 0,0 l/m 19,9 km/h (4 Bft) S 182 0 min 0,0 UV-I 0 W/m 10,6 C 6,8 C 35,4 km/h (5 Bft)
24.10.2022 22:00 12,7 C 11,7 C 87 % 1013,3 hPa 0,0 l/m 17,9 km/h (3 Bft) S 191 0 min 0,0 UV-I 0 W/m 10,6 C 7,4 C 30,6 km/h (5 Bft)
24.10.2022 22:03 12,7 C 11,7 C 87 % 1013,4 hPa 0,0 l/m 20,5 km/h (4 Bft) S 186 0 min 0,0 UV-I 0 W/m 10,6 C 6,6 C 33,8 km/h (5 Bft)
24.10.2022 22:06 12,6 C 11,7 C 87 % 1013,4 hPa 0,0 l/m 16,9 km/h (3 Bft) S-SW 202 0 min 0,0 UV-I 0 W/m 10,5 C 7,6 C 24,1 km/h (4 Bft)
24.10.2022 22:09 12,6 C 11,7 C 87 % 1013,4 hPa 0,0 l/m 16,4 km/h (3 Bft) SW 217 0 min 0,0 UV-I 0 W/m 10,5 C 7,8 C 35,4 km/h (5 Bft)
24.10.2022 22:12 12,6 C 11,7 C 87 % 1013,5 hPa 0,0 l/m 17,7 km/h (3 Bft) S-SW 210 0 min 0,0 UV-I 0 W/m 10,5 C 7,3 C 27,4 km/h (4 Bft)
24.10.2022 22:15 12,6 C 11,7 C 87 % 1013,5 hPa 0,0 l/m 15,6 km/h (3 Bft) S-SW 202 0 min 0,0 UV-I 0 W/m 10,5 C 8,1 C 22,5 km/h (4 Bft)
24.10.2022 22:18 12,6 C 11,7 C 87 % 1013,6 hPa 0,0 l/m 15,2 km/h (3 Bft) S-SW 194 0 min 0,0 UV-I 0 W/m 10,5 C 8,2 C 27,4 km/h (4 Bft)
24.10.2022 22:21 12,6 C 11,7 C 86 % 1013,6 hPa 0,0 l/m 14,9 km/h (3 Bft) S 183 0 min 0,0 UV-I 0 W/m 10,3 C 8,3 C 20,9 km/h (4 Bft)
24.10.2022 22:24 12,6 C 11,7 C 87 % 1013,6 hPa 0,0 l/m 15,3 km/h (3 Bft) S-SW 205 0 min 0,0 UV-I 0 W/m 10,5 C 8,2 C 24,1 km/h (4 Bft)
24.10.2022 22:27 12,6 C 12,2 C 86 % 1013,7 hPa 0,0 l/m 16,1 km/h (3 Bft) W-SW 250 0 min 0,0 UV-I 0 W/m 10,3 C 7,9 C 29,0 km/h (5 Bft)
24.10.2022 22:30 12,7 C 12,2 C 86 % 1013,7 hPa 0,0 l/m 14,3 km/h (3 Bft) S 186 0 min 0,0 UV-I 0 W/m 10,4 C 8,7 C 24,1 km/h (4 Bft)
24.10.2022 22:33 12,7 C 12,2 C 86 % 1013,8 hPa 0,0 l/m 15,7 km/h (3 Bft) S 178 0 min 0,0 UV-I 0 W/m 10,4 C 8,2 C 25,7 km/h (4 Bft)
24.10.2022 22:36 12,7 C 12,2 C 86 % 1014,0 hPa 0,0 l/m 18,7 km/h (3 Bft) S-SW 200 0 min 0,0 UV-I 0 W/m 10,4 C 7,2 C 25,7 km/h (4 Bft)
24.10.2022 22:39 12,7 C 12,2 C 85 % 1013,8 hPa 0,0 l/m 19,1 km/h (3 Bft) SW 225 0 min 0,0 UV-I 0 W/m 10,2 C 7,0 C 37,0 km/h (5 Bft)
24.10.2022 22:42 12,7 C 12,2 C 85 % 1013,9 hPa 0,0 l/m 16,5 km/h (3 Bft) S-SW 213 0 min 0,0 UV-I 0 W/m 10,2 C 7,9 C 22,5 km/h (4 Bft)
24.10.2022 22:45 12,7 C 12,2 C 86 % 1014,0 hPa 0,0 l/m 13,9 km/h (3 Bft) S 179 0 min 0,0 UV-I 0 W/m 10,4 C 8,8 C 24,1 km/h (4 Bft)
24.10.2022 22:48 12,7 C 12,2 C 86 % 1014,0 hPa 0,0 l/m 16,0 km/h (3 Bft) S 185 0 min 0,0 UV-I 0 W/m 10,4 C 8,0 C 25,7 km/h (4 Bft)
24.10.2022 22:51 12,7 C 12,2 C 86 % 1014,1 hPa 0,0 l/m 16,2 km/h (3 Bft) S 190 0 min 0,0 UV-I 0 W/m 10,4 C 8,0 C 24,1 km/h (4 Bft)
24.10.2022 22:54 12,7 C 12,2 C 86 % 1014,1 hPa 0,0 l/m 15,0 km/h (3 Bft) S-SW 200 0 min 0,0 UV-I 0 W/m 10,4 C 8,4 C 24,1 km/h (4 Bft)
24.10.2022 22:57 12,7 C 11,7 C 86 % 1014,1 hPa 0,0 l/m 13,7 km/h (3 Bft) SW 214 0 min 0,0 UV-I 0 W/m 10,4 C 8,9 C 20,9 km/h (4 Bft)
24.10.2022 23:00 12,6 C 11,7 C 86 % 1014,1 hPa 0,0 l/m 10,6 km/h (2 Bft) S-SW 213 0 min 0,0 UV-I 0 W/m 10,3 C 10,2 C 17,7 km/h (3 Bft)
24.10.2022 23:03 12,6 C 11,7 C 86 % 1014,1 hPa 0,0 l/m 11,6 km/h (2 Bft) SW 221 0 min 0,0 UV-I 0 W/m 10,3 C 9,7 C 17,7 km/h (3 Bft)
24.10.2022 23:06 12,6 C 11,7 C 86 % 1014,1 hPa 0,0 l/m 15,3 km/h (3 Bft) S 171 0 min 0,0 UV-I 0 W/m 10,3 C 8,2 C 24,1 km/h (4 Bft)
24.10.2022 23:09 12,6 C 11,7 C 86 % 1014,2 hPa 0,0 l/m 17,7 km/h (3 Bft) S-SW 192 0 min 0,0 UV-I 0 W/m 10,3 C 7,3 C 29,0 km/h (5 Bft)
24.10.2022 23:12 12,6 C 11,7 C 86 % 1014,3 hPa 0,0 l/m 13,1 km/h (3 Bft) S-SW 209 0 min 0,0 UV-I 0 W/m 10,3 C 9,0 C 24,1 km/h (4 Bft)
24.10.2022 23:15 12,5 C 11,7 C 86 % 1014,5 hPa 0,0 l/m 15,0 km/h (3 Bft) S 188 0 min 0,0 UV-I 0 W/m 10,2 C 8,2 C 24,1 km/h (4 Bft)
24.10.2022 23:18 12,6 C 11,7 C 86 % 1014,4 hPa 0,0 l/m 16,5 km/h (3 Bft) S 185 0 min 0,0 UV-I 0 W/m 10,3 C 7,7 C 25,7 km/h (4 Bft)
24.10.2022 23:21 12,6 C 12,2 C 86 % 1014,4 hPa 0,0 l/m 22,0 km/h (4 Bft) S 175 0 min 0,0 UV-I 0 W/m 10,3 C 6,1 C 41,8 km/h (6 Bft)
24.10.2022 23:24 12,6 C 12,2 C 86 % 1014,4 hPa 0,0 l/m 20,7 km/h (4 Bft) S 170 0 min 0,0 UV-I 0 W/m 10,3 C 6,4 C 29,0 km/h (5 Bft)
24.10.2022 23:27 12,6 C 11,7 C 86 % 1014,4 hPa 0,0 l/m 17,3 km/h (3 Bft) S 190 0 min 0,0 UV-I 0 W/m 10,3 C 7,5 C 30,6 km/h (5 Bft)
24.10.2022 23:30 12,6 C 11,7 C 86 % 1014,4 hPa 0,0 l/m 20,7 km/h (4 Bft) S-SW 203 0 min 0,0 UV-I 0 W/m 10,3 C 6,4 C 32,2 km/h (5 Bft)
24.10.2022 23:33 12,5 C 11,7 C 86 % 1014,5 hPa 0,0 l/m 14,1 km/h (3 Bft) S 173 0 min 0,0 UV-I 0 W/m 10,2 C 8,5 C 24,1 km/h (4 Bft)
24.10.2022 23:36 12,4 C 11,7 C 86 % 1014,5 hPa 0,0 l/m 13,2 km/h (3 Bft) S 184 0 min 0,0 UV-I 0 W/m 10,1 C 8,8 C 24,1 km/h (4 Bft)
24.10.2022 23:39 12,4 C 11,7 C 87 % 1014,5 hPa 0,0 l/m 16,3 km/h (3 Bft) S 183 0 min 0,0 UV-I 0 W/m 10,3 C 7,6 C 22,5 km/h (4 Bft)
24.10.2022 23:42 12,3 C 11,7 C 87 % 1014,5 hPa 0,0 l/m 15,2 km/h (3 Bft) S 177 0 min 0,0 UV-I 0 W/m 10,2 C 7,8 C 30,6 km/h (5 Bft)
24.10.2022 23:45 12,3 C 11,7 C 87 % 1014,4 hPa 0,0 l/m 13,6 km/h (3 Bft) S-SO 157 0 min 0,0 UV-I 0 W/m 10,2 C 8,5 C 22,5 km/h (4 Bft)
24.10.2022 23:48 12,3 C 11,7 C 87 % 1014,5 hPa 0,0 l/m 15,7 km/h (3 Bft) S 170 0 min 0,0 UV-I 0 W/m 10,2 C 7,7 C 24,1 km/h (4 Bft)
24.10.2022 23:51 12,2 C 11,7 C 87 % 1014,5 hPa 0,0 l/m 15,0 km/h (3 Bft) S-SO 167 0 min 0,0 UV-I 0 W/m 10,1 C 7,8 C 30,6 km/h (5 Bft)
24.10.2022 23:54 12,2 C 11,7 C 87 % 1014,5 hPa 0,0 l/m 15,0 km/h (3 Bft) S-SW 193 0 min 0,0 UV-I 0 W/m 10,1 C 7,8 C 24,1 km/h (4 Bft)
24.10.2022 23:57 12,2 C 11,7 C 88 % 1014,5 hPa 0,0 l/m 16,2 km/h (3 Bft) S-SW 192 0 min 0,0 UV-I 0 W/m 10,3 C 7,4 C 30,6 km/h (5 Bft)
_ Min-Zeit 23:51 02:21 12:21 07:01 - 02:18 - - - - - 08:24 09:36 02:27
Minimum _ 12,2 C 11,7 C 76 % 1008,5 hPa - 6,9 km/h (2 Bft) - - - - - 9,6 C 6,0 C 11,3 km/h (2 Bft)
_ Max-Zeit 12:30 12:27 23:57 23:15 00:00 14:48 - - 11:09 12:27 11:09 00:00 02:18 10:54
Maximum _ 14,5 C 17,8 C 88 % 1014,5 hPa 0,0 l/m 28,7 km/h
S-SW (4 Bft)
- - 3 min 1,5 UV-I 322 W/m 11,8 C 13,2 C 56,3 km/h
S-SO (7 Bft)
Durchschnitt _ 13,4 C 12,8 C 82 % 1010,9 hPa #0,0 l/m 18,1 km/h (3 Bft) S - #3 min. 0,8 UV-I 107 W/m 10,5 C 8,4 C 30,5 km/h (5 Bft)